| time (UTC) | temp F | wind direction | speed knots | gust knots | rain 1hr in | rain 24hr in | rain mn in | humidity % | barometer mb |
| 20260507113514 | 60 | 172 | 1.7 | 4.3 | 0.03 | 0.19 | 0.05 | 96 | 1010.9 |
| 20260507113413 | 60 | 184 | 1.7 | 4.3 | 0.03 | 0.19 | 0.05 | 96 | 1010.8 |
| 20260507113311 | 60 | 184 | 1.7 | 4.3 | 0.03 | 0.19 | 0.05 | 96 | 1010.8 |
| 20260507113210 | 60 | 180 | 1.7 | 4.3 | 0.03 | 0.19 | 0.05 | 96 | 1010.7 |
| 20260507113104 | 60 | 169 | 1.7 | 4.3 | 0.03 | 0.19 | 0.05 | 96 | 1010.7 |
| 20260507113005 | 60 | 166 | 1.7 | 4.3 | 0.03 | 0.19 | 0.05 | 96 | 1010.6 |
| 20260507112903 | 60 | 160 | 1.7 | 4.3 | 0.03 | 0.19 | 0.05 | 96 | 1010.6 |
| 20260507112805 | 60 | 160 | 1.7 | 4.3 | 0.02 | 0.18 | 0.04 | 96 | 1010.6 |
| 20260507112703 | 60 | 156 | 1.7 | 4.3 | 0.02 | 0.18 | 0.04 | 96 | 1010.7 |
| 20260507112559 | 60 | 153 | 1.7 | 4.3 | 0.02 | 0.18 | 0.04 | 96 | 1010.7 |
| 20260507112459 | 60 | 153 | 1.7 | 4.3 | 0.02 | 0.18 | 0.04 | 96 | 1010.7 |
| 20260507112359 | 60 | 134 | 1.7 | 4.3 | 0.02 | 0.18 | 0.04 | 96 | 1010.8 |
| 20260507112300 | 60 | 134 | 1.7 | 4.3 | 0.02 | 0.18 | 0.04 | 96 | 1010.8 |
| 20260507112158 | 60 | 169 | 1.7 | 4.3 | 0.02 | 0.18 | 0.04 | 96 | 1010.9 |
| 20260507112049 | 60 | 148 | 1.7 | 4.3 | 0.02 | 0.18 | 0.04 | 96 | 1010.9 |
| 20260507111951 | 60 | 170 | 1.7 | 4.3 | 0.02 | 0.18 | 0.04 | 96 | 1010.9 |
| 20260507111850 | 60 | 170 | 0.9 | 4.3 | 0.02 | 0.18 | 0.04 | 96 | 1011.0 |
| 20260507111750 | 60 | 164 | 0.9 | 3.5 | 0.02 | 0.18 | 0.04 | 96 | 1011.0 |
| 20260507111648 | 60 | 144 | 0.9 | 2.6 | 0.02 | 0.18 | 0.04 | 96 | 1011.2 |
| 20260507111540 | 60 | 212 | 0.9 | 2.6 | 0.02 | 0.18 | 0.04 | 96 | 1011.1 |
| 20260507111441 | 60 | 207 | 0.9 | 2.6 | 0.02 | 0.18 | 0.04 | 96 | 1011.1 |
| 20260507111341 | 60 | 208 | 0.9 | 2.6 | 0.01 | 0.17 | 0.04 | 96 | 1011.1 |
| 20260507111240 | 60 | 212 | 0.9 | 2.6 | 0.01 | 0.17 | 0.03 | 96 | 1011.0 |
| 20260507111141 | 60 | 213 | 0.9 | 2.6 | 0.01 | 0.17 | 0.03 | 96 | 1011.1 |
| 20260507111041 | 60 | 214 | 0.9 | 2.6 | 0.01 | 0.17 | 0.03 | 96 | 1011.0 |
| 20260507110939 | 60 | 214 | 0.9 | 2.6 | 0.01 | 0.17 | 0.03 | 96 | 1011.0 |
| 20260507110838 | 60 | 238 | 0.9 | 2.6 | 0.01 | 0.17 | 0.03 | 96 | 1011.0 |
| 20260507110738 | 60 | 252 | 0.9 | 2.6 | 0.01 | 0.17 | 0.03 | 96 | 1011.0 |
| 20260507110636 | 60 | 261 | 0.9 | 2.6 | 0.01 | 0.17 | 0.03 | 96 | 1011.0 |
| 20260507110527 | 60 | 261 | 0.9 | 2.6 | 0.01 | 0.17 | 0.03 | 96 | 1010.9 |
| 20260507110426 | 60 | 279 | 0.9 | 2.6 | 0.01 | 0.17 | 0.03 | 96 | 1010.9 |
| 20260507110325 | 60 | 82 | 0.9 | 1.7 | 0.01 | 0.17 | 0.03 | 96 | 1010.9 |
| 20260507110226 | 60 | 99 | 0.9 | 1.7 | 0.01 | 0.17 | 0.03 | 96 | 1010.9 |
| 20260507110125 | 60 | 98 | 0.9 | 1.7 | 0.00 | 0.16 | 0.03 | 96 | 1010.8 |
| 20260507110020 | 60 | 118 | 0.9 | 1.7 | 0.00 | 0.16 | 0.02 | 96 | 1010.7 |
| 20260507105920 | 60 | 118 | 0.9 | 1.7 | 0.00 | 0.16 | 0.02 | 96 | 1010.6 |
| 20260507105819 | 60 | 117 | 0.0 | 1.7 | 0.00 | 0.16 | 0.02 | 96 | 1010.7 |
| 20260507105718 | 60 | 117 | 0.0 | 1.7 | 0.00 | 0.16 | 0.02 | 96 | 1010.6 |
| 20260507105619 | 60 | 343 | 0.0 | 1.7 | 0.00 | 0.16 | 0.02 | 96 | 1010.6 |
| 20260507105519 | 60 | 342 | 0.0 | 1.7 | 0.00 | 0.16 | 0.02 | 96 | 1010.5 |
| 20260507105417 | 60 | 343 | 0.0 | 1.7 | 0.00 | 0.16 | 0.02 | 96 | 1010.4 |
| 20260507105317 | 60 | 343 | 0.0 | 1.7 | 0.00 | 0.16 | 0.02 | 96 | 1010.5 |
| 20260507105215 | 60 | 343 | 0.0 | 1.7 | 0.00 | 0.16 | 0.02 | 96 | 1010.4 |
| 20260507105113 | 60 | 343 | 0.0 | 1.7 | 0.00 | 0.16 | 0.02 | 96 | 1010.4 |
| 20260507105004 | 60 | 343 | 0.0 | 1.7 | 0.00 | 0.16 | 0.02 | 96 | 1010.4 |
| 20260507104903 | 60 | 343 | 0.0 | 1.7 | 0.00 | 0.16 | 0.02 | 96 | 1010.2 |
| 20260507104804 | 60 | 343 | 0.0 | 1.7 | 0.00 | 0.16 | 0.02 | 96 | 1010.4 |
| 20260507104703 | 60 | 290 | 0.0 | 1.7 | 0.00 | 0.16 | 0.02 | 96 | 1010.4 |
| 20260507104603 | 60 | 279 | 0.0 | 1.7 | 0.00 | 0.16 | 0.02 | 96 | 1010.4 |
| 20260507104501 | 60 | 134 | 0.0 | 1.7 | 0.00 | 0.16 | 0.02 | 96 | 1010.2 |
| 20260507104401 | 60 | 135 | 0.0 | 1.7 | 0.00 | 0.16 | 0.02 | 96 | 1010.4 |
| 20260507104302 | 60 | 137 | 0.0 | 1.7 | 0.00 | 0.16 | 0.02 | 96 | 1010.2 |
| 20260507104159 | 60 | 137 | 0.9 | 2.6 | 0.00 | 0.16 | 0.02 | 96 | 1010.4 |
| 20260507104058 | 60 | 137 | 0.9 | 2.6 | 0.00 | 0.16 | 0.02 | 96 | 1010.2 |
| 20260507103957 | 60 | 137 | 0.9 | 2.6 | 0.00 | 0.16 | 0.02 | 96 | 1010.2 |
| 20260507103856 | 60 | 137 | 0.9 | 2.6 | 0.00 | 0.16 | 0.02 | 96 | 1010.2 |
| 20260507103753 | 60 | 137 | 0.9 | 2.6 | 0.00 | 0.16 | 0.02 | 96 | 1010.1 |
| 20260507103654 | 60 | 137 | 0.9 | 2.6 | 0.00 | 0.16 | 0.02 | 96 | 1010.1 |
| 20260507103551 | 60 | 137 | 0.9 | 2.6 | 0.00 | 0.16 | 0.02 | 96 | 1010.1 |
| 20260507103443 | 60 | 110 | 0.9 | 2.6 | 0.00 | 0.16 | 0.02 | 96 | 1010.0 |
| 20260507103342 | 60 | 110 | 0.9 | 2.6 | 0.00 | 0.16 | 0.02 | 96 | 1010.0 |
| 20260507103242 | 60 | 111 | 0.0 | 2.6 | 0.00 | 0.16 | 0.02 | 96 | 1010.0 |
| 20260507103142 | 60 | 111 | 0.0 | 2.6 | 0.00 | 0.16 | 0.02 | 96 | 1010.1 |
| 20260507103042 | 60 | 111 | 0.0 | 2.6 | 0.00 | 0.16 | 0.02 | 96 | 1010.2 |
| 20260507102941 | 60 | 111 | 0.9 | 2.6 | 0.00 | 0.16 | 0.02 | 96 | 1010.2 |
| 20260507102840 | 60 | 111 | 0.9 | 2.6 | 0.00 | 0.16 | 0.02 | 96 | 1010.2 |
| 20260507102740 | 60 | 111 | 0.9 | 2.6 | 0.00 | 0.16 | 0.02 | 96 | 1010.2 |
| 20260507102638 | 60 | 113 | 0.9 | 2.6 | 0.00 | 0.16 | 0.02 | 96 | 1010.1 |
| 20260507102536 | 60 | 113 | 0.9 | 2.6 | 0.00 | 0.16 | 0.02 | 96 | 1010.0 |
| 20260507102429 | 60 | 138 | 0.0 | 2.6 | 0.00 | 0.16 | 0.02 | 96 | 1010.0 |
| 20260507102329 | 60 | 138 | 0.9 | 2.6 | 0.00 | 0.16 | 0.02 | 96 | 1009.9 |
| 20260507102230 | 60 | 138 | 0.9 | 2.6 | 0.00 | 0.16 | 0.02 | 96 | 1009.9 |
| 20260507102129 | 60 | 138 | 0.0 | 2.6 | 0.00 | 0.16 | 0.02 | 96 | 1009.9 |
| 20260507102031 | 60 | 138 | 0.0 | 2.6 | 0.00 | 0.16 | 0.02 | 96 | 1010.1 |
| 20260507101920 | 60 | 138 | 0.0 | 1.7 | 0.00 | 0.16 | 0.02 | 96 | 1010.2 |
| 20260507101820 | 60 | 220 | 0.0 | 1.7 | 0.00 | 0.16 | 0.02 | 96 | 1010.2 |
| 20260507101719 | 60 | 242 | 0.0 | 1.7 | 0.00 | 0.16 | 0.02 | 96 | 1010.4 |
| 20260507101619 | 60 | 242 | 0.0 | 1.7 | 0.00 | 0.16 | 0.02 | 96 | 1010.2 |
| 20260507101520 | 60 | 243 | 0.0 | 1.7 | 0.00 | 0.16 | 0.02 | 96 | 1010.2 |
| 20260507101416 | 60 | 243 | 0.0 | 1.7 | 0.00 | 0.16 | 0.02 | 96 | 1010.2 |
| 20260507101315 | 60 | 242 | 0.0 | 2.6 | 0.00 | 0.16 | 0.02 | 96 | 1010.5 |
| 20260507101216 | 60 | 243 | 0.0 | 2.6 | 0.00 | 0.16 | 0.02 | 96 | 1010.4 |
| 20260507101116 | 60 | 242 | 0.0 | 2.6 | 0.00 | 0.16 | 0.02 | 96 | 1010.4 |
| 20260507101014 | 60 | 242 | 0.0 | 2.6 | 0.00 | 0.16 | 0.02 | 96 | 1010.2 |
| 20260507100913 | 60 | 242 | 0.0 | 2.6 | 0.00 | 0.16 | 0.02 | 96 | 1010.5 |
| 20260507100812 | 60 | 242 | 0.0 | 2.6 | 0.00 | 0.16 | 0.02 | 96 | 1010.4 |
| 20260507100711 | 60 | 242 | 0.0 | 2.6 | 0.00 | 0.16 | 0.02 | 96 | 1010.2 |
| 20260507100610 | 60 | 242 | 0.0 | 2.6 | 0.00 | 0.16 | 0.02 | 96 | 1010.2 |
| 20260507100508 | 60 | 242 | 0.0 | 2.6 | 0.00 | 0.16 | 0.02 | 96 | 1010.4 |
| 20260507100400 | 60 | 242 | 0.0 | 2.6 | 0.00 | 0.16 | 0.02 | 96 | 1010.4 |
| 20260507100259 | 60 | 205 | 0.0 | 1.7 | 0.00 | 0.16 | 0.02 | 96 | 1010.6 |
| 20260507100158 | 60 | 205 | 0.0 | 1.7 | 0.00 | 0.16 | 0.02 | 96 | 1010.6 |
| 20260507100100 | 60 | 205 | 0.9 | 2.6 | 0.00 | 0.16 | 0.02 | 96 | 1010.6 |
| 20260507095957 | 60 | 205 | 0.9 | 2.6 | 0.00 | 0.16 | 0.02 | 96 | 1010.5 |
| 20260507095852 | 60 | 205 | 0.9 | 2.6 | 0.00 | 0.16 | 0.02 | 96 | 1010.4 |
| 20260507095752 | 60 | 205 | 0.9 | 2.6 | 0.00 | 0.16 | 0.02 | 96 | 1010.5 |
| 20260507095651 | 60 | 205 | 0.9 | 2.6 | 0.00 | 0.16 | 0.02 | 96 | 1010.2 |
| 20260507095551 | 60 | 205 | 0.9 | 2.6 | 0.00 | 0.16 | 0.02 | 96 | 1010.2 |
| 20260507095451 | 60 | 205 | 0.9 | 2.6 | 0.00 | 0.16 | 0.02 | 96 | 1010.1 |
| 20260507095351 | 60 | 205 | 0.9 | 2.6 | 0.00 | 0.16 | 0.02 | 96 | 1010.1 |
| 20260507095250 | 60 | 205 | 0.9 | 2.6 | 0.00 | 0.16 | 0.02 | 96 | 1010.1 |
| 20260507095148 | 60 | 205 | 0.0 | 2.6 | 0.00 | 0.16 | 0.02 | 96 | 1010.1 |
| 20260507095048 | 60 | 205 | 0.0 | 2.6 | 0.00 | 0.16 | 0.02 | 96 | 1010.0 |
| 20260507094945 | 60 | 181 | 0.0 | 2.6 | 0.00 | 0.16 | 0.02 | 96 | 1010.1 |
| 20260507094840 | 60 | 181 | 0.0 | 1.7 | 0.00 | 0.16 | 0.02 | 96 | 1010.0 |
| 20260507094740 | 60 | 207 | 0.0 | 1.7 | 0.00 | 0.16 | 0.02 | 96 | 1010.1 |
| 20260507094640 | 60 | 207 | 0.0 | 1.7 | 0.00 | 0.16 | 0.02 | 96 | 1010.1 |
| 20260507094538 | 60 | 207 | 0.0 | 1.7 | 0.00 | 0.16 | 0.02 | 96 | 1010.1 |
| 20260507094435 | 60 | 207 | 0.0 | 1.7 | 0.00 | 0.16 | 0.02 | 96 | 1010.1 |
| 20260507094336 | 60 | 207 | 0.0 | 0.9 | 0.00 | 0.16 | 0.02 | 96 | 1010.1 |
| 20260507094234 | 60 | 207 | 0.0 | 2.6 | 0.00 | 0.16 | 0.02 | 96 | 1010.1 |
| 20260507094134 | 60 | 207 | 0.0 | 2.6 | 0.00 | 0.16 | 0.02 | 96 | 1010.1 |
| 20260507094032 | 60 | 207 | 0.9 | 2.6 | 0.00 | 0.16 | 0.02 | 96 | 1010.1 |
| 20260507093930 | 60 | 207 | 0.9 | 2.6 | 0.00 | 0.16 | 0.02 | 96 | 1010.1 |
| 20260507093827 | 60 | 207 | 0.9 | 2.6 | 0.00 | 0.16 | 0.02 | 96 | 1010.1 |
| 20260507093723 | 60 | 207 | 0.9 | 2.6 | 0.00 | 0.16 | 0.02 | 96 | 1010.0 |
| 20260507093623 | 60 | 207 | 0.9 | 2.6 | 0.00 | 0.16 | 0.02 | 96 | 1010.2 |
| 20260507093525 | 60 | 207 | 0.9 | 2.6 | 0.00 | 0.16 | 0.02 | 96 | 1010.2 |
| 20260507093424 | 60 | 167 | 0.9 | 2.6 | 0.00 | 0.16 | 0.02 | 96 | 1010.2 |
| 20260507093319 | 60 | 167 | 0.9 | 2.6 | 0.00 | 0.16 | 0.02 | 96 | 1010.2 |
| 20260507093217 | 60 | 167 | 0.0 | 2.6 | 0.00 | 0.16 | 0.02 | 96 | 1010.4 |
| 20260507093118 | 60 | 167 | 0.0 | 2.6 | 0.00 | 0.16 | 0.02 | 96 | 1010.4 |
| 20260507093016 | 60 | 167 | 0.0 | 0.9 | 0.00 | 0.16 | 0.02 | 96 | 1010.5 |
| 20260507092914 | 60 | 167 | 0.0 | 0.9 | 0.00 | 0.16 | 0.02 | 96 | 1010.5 |
| 20260507092811 | 60 | 167 | 0.0 | 0.9 | 0.00 | 0.16 | 0.02 | 96 | 1010.6 |
| 20260507092712 | 60 | 167 | 0.0 | 1.7 | 0.00 | 0.16 | 0.02 | 96 | 1010.6 |
| 20260507092611 | 60 | 169 | 0.0 | 1.7 | 0.00 | 0.16 | 0.02 | 96 | 1010.5 |
| 20260507092510 | 60 | 169 | 0.0 | 1.7 | 0.00 | 0.16 | 0.02 | 96 | 1010.6 |
| 20260507092408 | 60 | 169 | 0.0 | 1.7 | 0.00 | 0.16 | 0.02 | 96 | 1010.6 |
| 20260507092306 | 60 | 169 | 0.9 | 1.7 | 0.00 | 0.16 | 0.02 | 96 | 1010.5 |
| 20260507092201 | 60 | 169 | 0.9 | 1.7 | 0.00 | 0.16 | 0.02 | 96 | 1010.6 |
| 20260507092100 | 60 | 169 | 0.9 | 1.7 | 0.00 | 0.16 | 0.02 | 96 | 1010.5 |
| 20260507092001 | 60 | 169 | 0.9 | 1.7 | 0.00 | 0.16 | 0.02 | 96 | 1010.2 |
| 20260507091902 | 60 | 170 | 0.9 | 1.7 | 0.00 | 0.16 | 0.02 | 96 | 1010.4 |
| 20260507091752 | 60 | 170 | 0.9 | 1.7 | 0.00 | 0.16 | 0.02 | 96 | 1010.4 |
| 20260507091652 | 60 | 171 | 0.9 | 1.7 | 0.00 | 0.16 | 0.02 | 96 | 1010.5 |
| 20260507091551 | 60 | 171 | 0.9 | 2.6 | 0.00 | 0.16 | 0.02 | 96 | 1010.4 |
| 20260507091450 | 60 | 171 | 0.9 | 2.6 | 0.00 | 0.16 | 0.02 | 96 | 1010.2 |
| 20260507091351 | 60 | 220 | 0.9 | 2.6 | 0.00 | 0.16 | 0.02 | 96 | 1010.4 |
| 20260507091248 | 60 | 222 | 0.9 | 2.6 | 0.00 | 0.16 | 0.02 | 96 | 1010.4 |
| 20260507091146 | 60 | 207 | 0.9 | 3.5 | 0.00 | 0.16 | 0.02 | 96 | 1010.4 |
| 20260507091045 | 60 | 159 | 0.9 | 4.3 | 0.00 | 0.16 | 0.02 | 96 | 1010.2 |
| 20260507090944 | 60 | 159 | 1.7 | 4.3 | 0.00 | 0.16 | 0.02 | 96 | 1010.4 |
| 20260507090846 | 60 | 159 | 1.7 | 4.3 | 0.00 | 0.16 | 0.02 | 96 | 1010.2 |
| 20260507090742 | 60 | 159 | 1.7 | 5.2 | 0.00 | 0.16 | 0.02 | 96 | 1010.2 |
| 20260507090639 | 60 | 157 | 1.7 | 5.2 | 0.00 | 0.16 | 0.02 | 96 | 1010.1 |
| 20260507090540 | 60 | 155 | 1.7 | 5.2 | 0.00 | 0.16 | 0.02 | 96 | 1010.1 |
| 20260507090440 | 60 | 155 | 1.7 | 5.2 | 0.00 | 0.16 | 0.02 | 96 | 1010.1 |
| 20260507090339 | 60 | 155 | 1.7 | 5.2 | 0.00 | 0.16 | 0.02 | 96 | 1010.1 |
| 20260507090236 | 60 | 156 | 1.7 | 5.2 | 0.00 | 0.16 | 0.02 | 96 | 1010.2 |
| 20260507090132 | 60 | 161 | 1.7 | 5.2 | 0.00 | 0.16 | 0.02 | 96 | 1010.4 |
| 20260507090033 | 60 | 157 | 1.7 | 5.2 | 0.00 | 0.16 | 0.02 | 96 | 1010.4 |
| 20260507085932 | 60 | 169 | 1.7 | 5.2 | 0.00 | 0.16 | 0.02 | 96 | 1010.5 |
| 20260507085829 | 60 | 169 | 1.7 | 5.2 | 0.00 | 0.16 | 0.02 | 96 | 1010.4 |
| 20260507085726 | 60 | 191 | 1.7 | 4.3 | 0.00 | 0.16 | 0.02 | 96 | 1010.5 |
| 20260507085628 | 60 | 175 | 1.7 | 4.3 | 0.00 | 0.16 | 0.02 | 96 | 1010.2 |
| 20260507085527 | 60 | 165 | 0.9 | 4.3 | 0.00 | 0.16 | 0.02 | 96 | 1010.4 |
| 20260507085427 | 60 | 111 | 0.9 | 4.3 | 0.00 | 0.16 | 0.02 | 96 | 1010.4 |
| 20260507085327 | 60 | 107 | 0.9 | 4.3 | 0.00 | 0.16 | 0.02 | 96 | 1010.4 |
| 20260507085216 | 60 | 98 | 0.9 | 4.3 | 0.00 | 0.16 | 0.02 | 96 | 1010.4 |
| 20260507085113 | 60 | 167 | 0.9 | 4.3 | 0.00 | 0.16 | 0.02 | 96 | 1010.2 |
| 20260507085014 | 60 | 169 | 0.9 | 4.3 | 0.00 | 0.16 | 0.02 | 96 | 1010.2 |
| 20260507084913 | 60 | 82 | 0.9 | 2.6 | 0.00 | 0.16 | 0.02 | 96 | 1010.1 |
| 20260507084814 | 60 | 53 | 0.9 | 2.6 | 0.00 | 0.16 | 0.02 | 96 | 1010.2 |
| 20260507084702 | 60 | 201 | 0.9 | 2.6 | 0.00 | 0.16 | 0.02 | 96 | 1010.1 |
| 20260507084603 | 60 | 207 | 0.9 | 2.6 | 0.00 | 0.16 | 0.02 | 96 | 1010.2 |
| 20260507084503 | 60 | 207 | 0.9 | 2.6 | 0.00 | 0.16 | 0.02 | 96 | 1010.2 |
| 20260507084402 | 60 | 207 | 0.9 | 2.6 | 0.00 | 0.16 | 0.02 | 96 | 1010.2 |
| 20260507084303 | 60 | 207 | 0.9 | 2.6 | 0.00 | 0.16 | 0.02 | 96 | 1010.4 |
| 20260507084157 | 60 | 207 | 0.9 | 2.6 | 0.00 | 0.16 | 0.02 | 96 | 1010.2 |
| 20260507084057 | 60 | 207 | 0.9 | 2.6 | 0.00 | 0.16 | 0.02 | 96 | 1010.2 |
| 20260507083958 | 60 | 208 | 0.9 | 2.6 | 0.00 | 0.16 | 0.02 | 96 | 1010.1 |
| 20260507083858 | 60 | 213 | 0.9 | 2.6 | 0.00 | 0.16 | 0.02 | 96 | 1010.1 |
| 20260507083757 | 60 | 228 | 0.9 | 5.2 | 0.00 | 0.16 | 0.02 | 96 | 1010.0 |
| 20260507083658 | 60 | 234 | 0.9 | 5.2 | 0.00 | 0.16 | 0.02 | 96 | 1010.1 |
| 20260507083555 | 60 | 234 | 0.9 | 5.2 | 0.00 | 0.16 | 0.02 | 96 | 1010.2 |
| 20260507083455 | 60 | 236 | 0.9 | 5.2 | 0.00 | 0.16 | 0.02 | 96 | 1010.4 |
| 20260507083354 | 60 | 236 | 0.9 | 5.2 | 0.00 | 0.16 | 0.02 | 96 | 1010.6 |
| 20260507083252 | 60 | 219 | 0.9 | 5.2 | 0.00 | 0.16 | 0.02 | 96 | 1010.7 |
| 20260507083144 | 60 | 219 | 0.9 | 5.2 | 0.00 | 0.16 | 0.02 | 96 | 1010.8 |
| 20260507083045 | 60 | 227 | 0.9 | 5.2 | 0.00 | 0.16 | 0.02 | 96 | 1010.7 |
| 20260507082946 | 60 | 227 | 0.9 | 5.2 | 0.00 | 0.16 | 0.02 | 96 | 1010.9 |
| 20260507082844 | 60 | 281 | 0.9 | 3.5 | 0.00 | 0.16 | 0.02 | 96 | 1010.9 |
| 20260507082741 | 60 | 279 | 0.9 | 3.5 | 0.00 | 0.16 | 0.02 | 96 | 1010.9 |
| 20260507082639 | 60 | 279 | 0.9 | 3.5 | 0.00 | 0.16 | 0.02 | 96 | 1011.0 |
| 20260507082540 | 60 | 157 | 0.9 | 3.5 | 0.00 | 0.16 | 0.02 | 96 | 1011.0 |
| 20260507082437 | 60 | 142 | 0.9 | 3.5 | 0.00 | 0.16 | 0.02 | 96 | 1011.0 |
| 20260507082336 | 60 | 142 | 0.9 | 3.5 | 0.00 | 0.16 | 0.02 | 96 | 1011.0 |
| 20260507082235 | 60 | 142 | 0.9 | 3.5 | 0.00 | 0.16 | 0.02 | 96 | 1011.1 |
| 20260507082130 | 60 | 142 | 0.9 | 3.5 | 0.00 | 0.16 | 0.02 | 96 | 1011.1 |
| 20260507082028 | 60 | 143 | 0.9 | 3.5 | 0.00 | 0.16 | 0.02 | 96 | 1011.1 |
| 20260507081930 | 60 | 138 | 0.9 | 3.5 | 0.00 | 0.16 | 0.02 | 96 | 1011.1 |
| 20260507081829 | 60 | 310 | 0.9 | 3.5 | 0.00 | 0.16 | 0.02 | 95 | 1011.0 |
| 20260507081730 | 60 | 313 | 0.9 | 3.5 | 0.00 | 0.16 | 0.02 | 96 | 1011.0 |
| 20260507081623 | 60 | 278 | 0.9 | 3.5 | 0.00 | 0.16 | 0.02 | 96 | 1011.0 |
| 20260507081524 | 60 | 277 | 0.9 | 3.5 | 0.00 | 0.16 | 0.02 | 96 | 1010.9 |
| 20260507081424 | 60 | 277 | 1.7 | 6.1 | 0.00 | 0.16 | 0.02 | 96 | 1010.9 |
| 20260507081321 | 60 | 280 | 1.7 | 6.1 | 0.00 | 0.16 | 0.02 | 96 | 1010.9 |
| 20260507081219 | 60 | 277 | 1.7 | 6.1 | 0.00 | 0.16 | 0.02 | 96 | 1010.9 |
| 20260507081118 | 60 | 277 | 1.7 | 6.1 | 0.00 | 0.16 | 0.02 | 95 | 1010.8 |
| 20260507081017 | 60 | 288 | 1.7 | 6.1 | 0.00 | 0.16 | 0.02 | 95 | 1010.9 |
| 20260507080917 | 60 | 288 | 1.7 | 6.1 | 0.00 | 0.16 | 0.02 | 95 | 1010.9 |
| 20260507080815 | 60 | 286 | 1.7 | 6.1 | 0.00 | 0.16 | 0.02 | 96 | 1010.9 |
| 20260507080713 | 60 | 287 | 1.7 | 6.1 | 0.00 | 0.16 | 0.02 | 96 | 1010.9 |
| 20260507080610 | 60 | 288 | 1.7 | 6.1 | 0.00 | 0.16 | 0.02 | 95 | 1010.9 |
| 20260507080511 | 60 | 288 | 0.9 | 6.1 | 0.00 | 0.16 | 0.02 | 95 | 1010.9 |
| 20260507080410 | 60 | 322 | 0.9 | 3.5 | 0.00 | 0.16 | 0.02 | 95 | 1010.9 |
| 20260507080310 | 60 | 329 | 0.9 | 3.5 | 0.00 | 0.16 | 0.02 | 95 | 1010.8 |
| 20260507080208 | 60 | 99 | 0.9 | 2.6 | 0.00 | 0.16 | 0.02 | 95 | 1010.8 |
| 20260507075957 | 60 | 100 | 0.9 | 2.6 | 0.00 | 0.16 | 0.02 | 95 | 1010.7 |
| 20260507075857 | 60 | 101 | 0.9 | 2.6 | 0.00 | 0.16 | 0.02 | 95 | 1010.6 |
| 20260507075756 | 60 | 111 | 0.9 | 2.6 | 0.00 | 0.16 | 0.02 | 95 | 1010.6 |
| 20260507075552 | 60 | 96 | 0.9 | 2.6 | 0.00 | 0.16 | 0.02 | 95 | 1010.6 |
| 20260507075453 | 60 | 96 | 0.9 | 2.6 | 0.00 | 0.16 | 0.02 | 95 | 1010.6 |
| 20260507075354 | 60 | 96 | 0.9 | 2.6 | 0.00 | 0.16 | 0.02 | 95 | 1010.6 |
| 20260507075253 | 60 | 62 | 0.9 | 2.6 | 0.00 | 0.16 | 0.02 | 95 | 1010.6 |
| 20260507075152 | 60 | 61 | 0.9 | 2.6 | 0.00 | 0.16 | 0.02 | 95 | 1010.6 |
| 20260507075046 | 60 | 77 | 0.9 | 2.6 | 0.00 | 0.16 | 0.02 | 95 | 1010.5 |
| 20260507074945 | 60 | 77 | 0.9 | 2.6 | 0.00 | 0.16 | 0.02 | 95 | 1010.5 |
| 20260507074846 | 60 | 76 | 0.9 | 2.6 | 0.00 | 0.16 | 0.02 | 95 | 1010.5 |
| 20260507074745 | 60 | 76 | 0.9 | 3.5 | 0.00 | 0.16 | 0.02 | 95 | 1010.6 |
| 20260507074645 | 60 | 105 | 0.9 | 3.5 | 0.00 | 0.16 | 0.02 | 95 | 1010.5 |
| 20260507074538 | 60 | 105 | 0.9 | 3.5 | 0.00 | 0.16 | 0.02 | 95 | 1010.6 |
| 20260507074440 | 60 | 105 | 0.9 | 3.5 | 0.00 | 0.16 | 0.02 | 95 | 1010.6 |
| 20260507074338 | 60 | 105 | 0.9 | 3.5 | 0.00 | 0.16 | 0.02 | 95 | 1010.6 |
| 20260507074237 | 60 | 105 | 0.9 | 3.5 | 0.00 | 0.16 | 0.02 | 95 | 1010.7 |
| 20260507074135 | 60 | 355 | 0.9 | 3.5 | 0.00 | 0.16 | 0.02 | 95 | 1010.6 |
| 20260507074031 | 60 | 339 | 0.9 | 3.5 | 0.00 | 0.16 | 0.02 | 95 | 1010.7 |
| 20260507073932 | 60 | 337 | 0.9 | 3.5 | 0.00 | 0.16 | 0.02 | 96 | 1010.7 |
| 20260507073830 | 60 | 161 | 0.9 | 3.5 | 0.00 | 0.16 | 0.02 | 95 | 1010.7 |
| 20260507073731 | 60 | 154 | 0.9 | 3.5 | 0.00 | 0.16 | 0.02 | 95 | 1010.7 |
| 20260507073630 | 60 | 162 | 0.9 | 3.5 | 0.00 | 0.16 | 0.02 | 96 | 1010.7 |
| 20260507073526 | 60 | 163 | 0.9 | 3.5 | 0.00 | 0.16 | 0.02 | 96 | 1010.7 |
| 20260507073422 | 60 | 163 | 0.9 | 3.5 | 0.00 | 0.16 | 0.02 | 96 | 1010.6 |
| 20260507073324 | 60 | 163 | 0.9 | 3.5 | 0.00 | 0.16 | 0.02 | 96 | 1010.6 |
| 20260507073223 | 60 | 163 | 0.9 | 3.5 | 0.00 | 0.16 | 0.02 | 96 | 1010.6 |
| 20260507073123 | 60 | 166 | 0.9 | 3.5 | 0.00 | 0.16 | 0.02 | 95 | 1010.6 |
| 20260507073016 | 60 | 173 | 0.9 | 2.6 | 0.00 | 0.16 | 0.02 | 96 | 1010.6 |
| 20260507072918 | 60 | 222 | 0.0 | 2.6 | 0.00 | 0.16 | 0.02 | 96 | 1010.6 |
| 20260507072817 | 60 | 222 | 0.0 | 2.6 | 0.00 | 0.16 | 0.02 | 96 | 1010.7 |
| 20260507072716 | 60 | 246 | 0.0 | 2.6 | 0.00 | 0.16 | 0.02 | 96 | 1010.7 |
| 20260507072614 | 60 | 247 | 0.9 | 2.6 | 0.00 | 0.16 | 0.02 | 96 | 1010.6 |
| 20260507072509 | 60 | 246 | 0.9 | 2.6 | 0.00 | 0.16 | 0.02 | 96 | 1010.5 |
| 20260507072408 | 60 | 248 | 0.9 | 2.6 | 0.00 | 0.16 | 0.02 | 96 | 1010.7 |
| 20260507072308 | 60 | 296 | 0.9 | 5.2 | 0.00 | 0.16 | 0.02 | 96 | 1010.5 |
| 20260507072208 | 60 | 196 | 0.9 | 5.2 | 0.00 | 0.16 | 0.02 | 96 | 1010.5 |
| 20260507072107 | 60 | 167 | 1.7 | 5.2 | 0.00 | 0.16 | 0.02 | 96 | 1010.5 |
| 20260507072002 | 60 | 167 | 1.7 | 5.2 | 0.00 | 0.16 | 0.02 | 96 | 1010.4 |
| 20260507071901 | 60 | 167 | 1.7 | 5.2 | 0.00 | 0.16 | 0.02 | 96 | 1010.5 |
| 20260507071802 | 60 | 170 | 1.7 | 5.2 | 0.00 | 0.16 | 0.02 | 96 | 1010.5 |
| 20260507071701 | 60 | 173 | 1.7 | 5.2 | 0.00 | 0.16 | 0.02 | 96 | 1010.6 |
| 20260507071602 | 60 | 174 | 1.7 | 5.2 | 0.00 | 0.16 | 0.02 | 96 | 1010.6 |
| 20260507071454 | 60 | 174 | 1.7 | 7.0 | 0.00 | 0.16 | 0.02 | 96 | 1010.6 |
| 20260507071355 | 61 | 174 | 0.9 | 7.0 | 0.00 | 0.16 | 0.02 | 96 | 1010.8 |
| 20260507071254 | 60 | 191 | 0.9 | 7.0 | 0.00 | 0.16 | 0.02 | 96 | 1010.8 |
| 20260507071153 | 60 | 193 | 0.9 | 7.0 | 0.00 | 0.16 | 0.02 | 96 | 1010.9 |
| 20260507071051 | 60 | 282 | 0.9 | 7.0 | 0.00 | 0.16 | 0.02 | 96 | 1011.0 |
| 20260507070947 | 60 | 221 | 0.9 | 7.0 | 0.00 | 0.16 | 0.02 | 96 | 1011.1 |
| 20260507070845 | 60 | 221 | 0.9 | 7.0 | 0.00 | 0.16 | 0.02 | 96 | 1011.2 |
| 20260507070746 | 61 | 271 | 0.9 | 7.0 | 0.00 | 0.16 | 0.02 | 96 | 1011.2 |
| 20260507070644 | 61 | 272 | 0.9 | 7.0 | 0.00 | 0.16 | 0.02 | 96 | 1011.2 |
| 20260507070545 | 60 | 236 | 0.9 | 2.6 | 0.00 | 0.16 | 0.02 | 96 | 1011.3 |
| 20260507070442 | 60 | 244 | 0.9 | 2.6 | 0.00 | 0.16 | 0.02 | 96 | 1011.3 |
| 20260507070340 | 61 | 246 | 0.9 | 2.6 | 0.00 | 0.16 | 0.02 | 96 | 1011.2 |
| 20260507070241 | 60 | 302 | 0.9 | 2.6 | 0.00 | 0.16 | 0.02 | 96 | 1011.2 |
| 20260507070141 | 60 | 302 | 0.9 | 2.6 | 0.00 | 0.16 | 0.02 | 96 | 1011.1 |
| 20260507070041 | 61 | 302 | 0.9 | 3.5 | 0.00 | 0.16 | 0.02 | 96 | 1011.1 |
| 20260507065942 | 61 | 198 | 1.7 | 3.5 | 0.00 | 0.16 | 0.02 | 96 | 1011.1 |
| 20260507065841 | 61 | 196 | 1.7 | 3.5 | 0.00 | 0.16 | 0.02 | 96 | 1011.0 |
| 20260507065739 | 61 | 196 | 1.7 | 7.0 | 0.00 | 0.16 | 0.02 | 96 | 1011.1 |
| 20260507065639 | 61 | 287 | 1.7 | 7.0 | 0.00 | 0.16 | 0.02 | 96 | 1011.2 |
| 20260507065539 | 61 | 288 | 1.7 | 7.0 | 0.00 | 0.16 | 0.02 | 96 | 1011.1 |
| 20260507065438 | 61 | 180 | 1.7 | 7.0 | 0.00 | 0.16 | 0.02 | 96 | 1011.1 |
| 20260507065335 | 61 | 179 | 1.7 | 7.0 | 0.00 | 0.16 | 0.02 | 96 | 1011.1 |
| 20260507065234 | 61 | 182 | 1.7 | 7.0 | 0.00 | 0.16 | 0.02 | 96 | 1011.0 |
| 20260507065132 | 61 | 188 | 2.6 | 7.0 | 0.00 | 0.16 | 0.02 | 96 | 1011.0 |
| 20260507065032 | 61 | 177 | 1.7 | 7.0 | 0.00 | 0.16 | 0.02 | 96 | 1011.0 |
| 20260507064932 | 61 | 178 | 1.7 | 7.0 | 0.00 | 0.16 | 0.02 | 96 | 1011.1 |
| 20260507064833 | 61 | 150 | 1.7 | 7.0 | 0.00 | 0.16 | 0.02 | 96 | 1011.2 |
| 20260507064732 | 61 | 167 | 1.7 | 6.1 | 0.00 | 0.16 | 0.02 | 96 | 1011.3 |
| 20260507064634 | 61 | 167 | 1.7 | 6.1 | 0.00 | 0.16 | 0.02 | 96 | 1011.3 |
| 20260507064532 | 61 | 40 | 1.7 | 6.1 | 0.00 | 0.16 | 0.02 | 96 | 1011.3 |
| 20260507064432 | 61 | 179 | 1.7 | 6.1 | 0.00 | 0.16 | 0.02 | 96 | 1011.2 |
| 20260507064331 | 61 | 156 | 1.7 | 6.1 | 0.00 | 0.16 | 0.02 | 96 | 1011.3 |
| 20260507064228 | 61 | 172 | 0.9 | 6.1 | 0.00 | 0.16 | 0.02 | 96 | 1011.3 |
| 20260507064124 | 61 | 178 | 0.9 | 6.1 | 0.00 | 0.16 | 0.02 | 95 | 1011.2 |
| 20260507064025 | 61 | 165 | 0.9 | 5.2 | 0.00 | 0.16 | 0.02 | 95 | 1011.3 |
| 20260507063925 | 61 | 154 | 0.9 | 3.5 | 0.00 | 0.16 | 0.02 | 95 | 1011.4 |
| 20260507063825 | 61 | 142 | 0.9 | 3.5 | 0.00 | 0.16 | 0.02 | 95 | 1011.4 |
| 20260507063720 | 61 | 142 | 0.9 | 3.5 | 0.00 | 0.16 | 0.02 | 95 | 1011.3 |
| 20260507063619 | 61 | 142 | 0.9 | 3.5 | 0.00 | 0.16 | 0.02 | 95 | 1011.2 |
| 20260507063519 | 61 | 141 | 0.9 | 7.0 | 0.00 | 0.16 | 0.02 | 95 | 1011.3 |
| 20260507063419 | 61 | 125 | 0.9 | 7.0 | 0.00 | 0.16 | 0.02 | 95 | 1011.3 |
| 20260507063319 | 61 | 124 | 0.9 | 7.0 | 0.00 | 0.16 | 0.02 | 95 | 1011.2 |
| 20260507063217 | 61 | 126 | 0.9 | 7.0 | 0.00 | 0.16 | 0.02 | 95 | 1011.3 |
| 20260507063116 | 61 | 126 | 0.9 | 7.0 | 0.00 | 0.16 | 0.02 | 95 | 1011.3 |
| 20260507063016 | 61 | 192 | 1.7 | 7.0 | 0.00 | 0.16 | 0.02 | 95 | 1011.3 |
| 20260507062914 | 61 | 192 | 1.7 | 7.0 | 0.00 | 0.16 | 0.02 | 95 | 1011.3 |
| 20260507062816 | 61 | 192 | 1.7 | 7.0 | 0.00 | 0.16 | 0.02 | 95 | 1011.3 |
| 20260507062715 | 61 | 169 | 1.7 | 7.0 | 0.00 | 0.16 | 0.02 | 95 | 1011.3 |
| 20260507062614 | 61 | 170 | 2.6 | 7.0 | 0.00 | 0.16 | 0.02 | 95 | 1011.3 |
| 20260507062515 | 61 | 184 | 1.7 | 6.1 | 0.00 | 0.16 | 0.02 | 95 | 1011.3 |
| 20260507062414 | 61 | 177 | 1.7 | 6.1 | 0.00 | 0.16 | 0.02 | 95 | 1011.3 |
| 20260507062312 | 61 | 157 | 1.7 | 6.1 | 0.00 | 0.16 | 0.02 | 95 | 1011.3 |
| 20260507062211 | 61 | 153 | 1.7 | 6.1 | 0.00 | 0.16 | 0.02 | 95 | 1011.3 |
| 20260507062110 | 61 | 183 | 2.6 | 6.1 | 0.00 | 0.16 | 0.02 | 95 | 1011.4 |
| 20260507062011 | 61 | 190 | 2.6 | 6.1 | 0.01 | 0.16 | 0.02 | 95 | 1011.2 |
| 20260507061912 | 61 | 128 | 2.6 | 6.1 | 0.01 | 0.16 | 0.02 | 95 | 1011.3 |
| 20260507061810 | 61 | 184 | 2.6 | 6.1 | 0.01 | 0.16 | 0.02 | 95 | 1011.4 |
| 20260507061709 | 61 | 175 | 2.6 | 6.1 | 0.01 | 0.16 | 0.02 | 95 | 1011.4 |
| 20260507061607 | 61 | 192 | 2.6 | 6.1 | 0.01 | 0.16 | 0.02 | 96 | 1011.4 |
| 20260507061507 | 61 | 190 | 2.6 | 6.1 | 0.01 | 0.16 | 0.02 | 95 | 1011.4 |
| 20260507061408 | 61 | 182 | 1.7 | 6.1 | 0.01 | 0.16 | 0.02 | 95 | 1011.5 |
| 20260507061306 | 61 | 275 | 1.7 | 6.1 | 0.01 | 0.16 | 0.02 | 95 | 1011.4 |
| 20260507061206 | 61 | 199 | 1.7 | 7.8 | 0.01 | 0.16 | 0.02 | 96 | 1011.4 |
| 20260507061105 | 61 | 187 | 2.6 | 7.8 | 0.01 | 0.16 | 0.02 | 95 | 1011.3 |
| 20260507060959 | 61 | 188 | 2.6 | 7.8 | 0.01 | 0.16 | 0.02 | 95 | 1011.3 |
| 20260507060858 | 61 | 220 | 2.6 | 9.6 | 0.01 | 0.16 | 0.02 | 95 | 1011.3 |
| 20260507060800 | 61 | 163 | 3.5 | 10.4 | 0.01 | 0.16 | 0.02 | 95 | 1011.3 |
| 20260507060658 | 61 | 194 | 3.5 | 10.4 | 0.01 | 0.16 | 0.02 | 96 | 1011.3 |
| 20260507060559 | 61 | 238 | 3.5 | 10.4 | 0.01 | 0.16 | 0.02 | 96 | 1011.3 |
| 20260507060459 | 61 | 184 | 4.3 | 10.4 | 0.01 | 0.16 | 0.02 | 95 | 1011.2 |
| 20260507060357 | 61 | 199 | 4.3 | 13.0 | 0.01 | 0.16 | 0.02 | 96 | 1011.3 |
| 20260507060256 | 61 | 232 | 4.3 | 13.0 | 0.01 | 0.16 | 0.02 | 95 | 1011.3 |
| 20260507060157 | 61 | 181 | 5.2 | 13.0 | 0.01 | 0.16 | 0.02 | 96 | 1011.3 |
| 20260507060057 | 61 | 221 | 5.2 | 13.0 | 0.01 | 0.16 | 0.02 | 95 | 1011.3 |
| 20260507055957 | 61 | 159 | 5.2 | 13.0 | 0.01 | 0.16 | 0.02 | 95 | 1011.3 |
| 20260507055856 | 61 | 212 | 5.2 | 13.0 | 0.01 | 0.16 | 0.02 | 95 | 1011.3 |
| 20260507055757 | 61 | 199 | 5.2 | 13.0 | 0.01 | 0.16 | 0.02 | 95 | 1011.4 |
| 20260507055658 | 61 | 174 | 5.2 | 13.9 | 0.01 | 0.16 | 0.02 | 95 | 1011.4 |
| 20260507055558 | 61 | 196 | 5.2 | 13.9 | 0.01 | 0.16 | 0.02 | 95 | 1011.4 |
| 20260507055456 | 61 | 161 | 5.2 | 13.9 | 0.01 | 0.16 | 0.02 | 95 | 1011.4 |
| 20260507055357 | 61 | 200 | 4.3 | 13.9 | 0.01 | 0.16 | 0.02 | 95 | 1011.4 |
| 20260507055258 | 61 | 155 | 4.3 | 13.9 | 0.01 | 0.16 | 0.02 | 95 | 1011.5 |
| 20260507055157 | 61 | 172 | 4.3 | 13.9 | 0.01 | 0.16 | 0.02 | 95 | 1011.5 |
| 20260507055057 | 61 | 161 | 4.3 | 13.9 | 0.01 | 0.16 | 0.02 | 95 | 1011.6 |
| 20260507054956 | 61 | 188 | 4.3 | 13.9 | 0.01 | 0.16 | 0.02 | 95 | 1011.7 |
| 20260507054858 | 61 | 173 | 3.5 | 13.9 | 0.01 | 0.16 | 0.02 | 95 | 1011.7 |
| 20260507054757 | 61 | 166 | 3.5 | 13.9 | 0.01 | 0.16 | 0.02 | 95 | 1011.8 |
| 20260507054657 | 61 | 198 | 3.5 | 9.6 | 0.01 | 0.16 | 0.02 | 95 | 1012.0 |
| 20260507054558 | 61 | 162 | 3.5 | 9.6 | 0.01 | 0.16 | 0.02 | 95 | 1012.1 |
| 20260507054457 | 61 | 135 | 3.5 | 9.6 | 0.01 | 0.16 | 0.02 | 95 | 1012.1 |
| 20260507054357 | 61 | 154 | 2.6 | 9.6 | 0.01 | 0.16 | 0.02 | 95 | 1012.1 |
| 20260507054256 | 61 | 162 | 2.6 | 9.6 | 0.01 | 0.16 | 0.02 | 95 | 1012.2 |
| 20260507054157 | 61 | 156 | 2.6 | 7.8 | 0.01 | 0.16 | 0.02 | 95 | 1012.2 |
| 20260507054050 | 61 | 171 | 2.6 | 7.8 | 0.01 | 0.16 | 0.02 | 95 | 1012.3 |
| 20260507053950 | 61 | 182 | 2.6 | 7.8 | 0.01 | 0.16 | 0.02 | 95 | 1012.4 |
| 20260507053851 | 61 | 139 | 2.6 | 7.8 | 0.01 | 0.16 | 0.02 | 95 | 1012.5 |
| 20260507053750 | 61 | 169 | 1.7 | 7.8 | 0.01 | 0.16 | 0.02 | 95 | 1012.6 |
| 20260507053650 | 61 | 194 | 1.7 | 6.1 | 0.01 | 0.16 | 0.02 | 95 | 1012.8 |
| 20260507053550 | 61 | 171 | 1.7 | 6.1 | 0.01 | 0.16 | 0.02 | 95 | 1012.7 |
| 20260507053450 | 61 | 167 | 1.7 | 6.1 | 0.01 | 0.16 | 0.02 | 95 | 1012.8 |
| 20260507053351 | 61 | 177 | 1.7 | 6.1 | 0.01 | 0.16 | 0.02 | 95 | 1012.8 |
| 20260507053252 | 61 | 183 | 1.7 | 6.1 | 0.01 | 0.16 | 0.02 | 95 | 1012.8 |
| 20260507053148 | 61 | 174 | 1.7 | 6.1 | 0.01 | 0.16 | 0.02 | 95 | 1012.8 |
| 20260507053050 | 61 | 193 | 2.6 | 7.0 | 0.01 | 0.16 | 0.02 | 95 | 1012.9 |
| 20260507052949 | 61 | 194 | 2.6 | 7.0 | 0.01 | 0.16 | 0.02 | 95 | 1012.9 |
| 20260507052849 | 61 | 180 | 1.7 | 7.0 | 0.01 | 0.16 | 0.02 | 95 | 1012.8 |
| 20260507052749 | 61 | 198 | 2.6 | 7.0 | 0.01 | 0.16 | 0.02 | 95 | 1012.8 |
| 20260507052647 | 61 | 163 | 2.6 | 7.0 | 0.02 | 0.16 | 0.02 | 95 | 1012.7 |
| 20260507052547 | 61 | 186 | 2.6 | 7.0 | 0.02 | 0.16 | 0.02 | 95 | 1012.6 |
| 20260507052445 | 61 | 175 | 2.6 | 7.0 | 0.02 | 0.16 | 0.02 | 95 | 1012.6 |
| 20260507052340 | 61 | 178 | 2.6 | 7.0 | 0.02 | 0.16 | 0.02 | 95 | 1012.6 |
| 20260507052242 | 61 | 161 | 2.6 | 7.0 | 0.02 | 0.16 | 0.02 | 95 | 1012.6 |
| 20260507052141 | 61 | 164 | 2.6 | 7.0 | 0.02 | 0.16 | 0.02 | 95 | 1012.5 |
| 20260507052041 | 61 | 165 | 2.6 | 7.0 | 0.02 | 0.16 | 0.02 | 95 | 1012.6 |
| 20260507051940 | 61 | 161 | 2.6 | 7.0 | 0.01 | 0.15 | 0.02 | 95 | 1012.6 |
| 20260507051841 | 61 | 168 | 2.6 | 7.0 | 0.01 | 0.15 | 0.01 | 95 | 1012.6 |
| 20260507051741 | 61 | 168 | 1.7 | 7.0 | 0.01 | 0.15 | 0.01 | 95 | 1012.5 |
| 20260507051641 | 61 | 170 | 1.7 | 7.0 | 0.01 | 0.15 | 0.01 | 95 | 1012.5 |
| 20260507051542 | 62 | 163 | 1.7 | 7.0 | 0.01 | 0.15 | 0.01 | 95 | 1012.4 |
| 20260507051442 | 62 | 161 | 1.7 | 7.0 | 0.01 | 0.15 | 0.01 | 95 | 1012.5 |
| 20260507051340 | 62 | 172 | 0.9 | 7.0 | 0.01 | 0.15 | 0.01 | 95 | 1012.6 |
| 20260507051241 | 62 | 153 | 0.9 | 3.5 | 0.01 | 0.15 | 0.01 | 95 | 1012.7 |
| 20260507051138 | 62 | 151 | 0.9 | 3.5 | 0.01 | 0.15 | 0.01 | 95 | 1012.9 |
| 20260507051040 | 62 | 150 | 0.9 | 3.5 | 0.01 | 0.15 | 0.01 | 95 | 1013.0 |
| 20260507050939 | 62 | 165 | 0.9 | 3.5 | 0.01 | 0.15 | 0.01 | 95 | 1013.0 |
| 20260507050838 | 62 | 165 | 0.9 | 3.5 | 0.01 | 0.15 | 0.01 | 95 | 1013.0 |
| 20260507050740 | 62 | 164 | 0.9 | 3.5 | 0.01 | 0.15 | 0.01 | 95 | 1013.0 |
| 20260507050638 | 62 | 164 | 0.9 | 3.5 | 0.01 | 0.15 | 0.01 | 95 | 1013.0 |
| 20260507050539 | 62 | 162 | 0.9 | 3.5 | 0.01 | 0.15 | 0.01 | 95 | 1013.1 |
| 20260507050439 | 62 | 162 | 0.9 | 3.5 | 0.01 | 0.15 | 0.01 | 95 | 1013.0 |
| 20260507050340 | 62 | 162 | 0.9 | 3.5 | 0.01 | 0.15 | 0.01 | 95 | 1013.1 |
| 20260507050239 | 62 | 119 | 0.9 | 3.5 | 0.01 | 0.15 | 0.01 | 95 | 1013.1 |
| 20260507050138 | 62 | 119 | 0.9 | 3.5 | 0.01 | 0.15 | 0.01 | 95 | 1013.1 |
| 20260507050039 | 62 | 119 | 0.9 | 3.5 | 0.01 | 0.15 | 0.01 | 95 | 1013.1 |
| 20260507045939 | 62 | 119 | 0.9 | 3.5 | 0.01 | 0.15 | 0.01 | 95 | 1013.1 |
| 20260507045838 | 62 | 113 | 0.9 | 3.5 | 0.01 | 0.15 | 0.01 | 95 | 1013.2 |
| 20260507045738 | 62 | 111 | 0.9 | 3.5 | 0.01 | 0.15 | 0.01 | 95 | 1013.2 |
| 20260507045638 | 62 | 111 | 0.9 | 3.5 | 0.01 | 0.15 | 0.01 | 95 | 1013.3 |
| 20260507045538 | 62 | 98 | 0.9 | 1.7 | 0.01 | 0.15 | 0.01 | 95 | 1013.3 |
| 20260507045439 | 62 | 98 | 0.9 | 1.7 | 0.01 | 0.15 | 0.01 | 95 | 1013.1 |
| 20260507045338 | 62 | 98 | 0.9 | 2.6 | 0.01 | 0.15 | 0.01 | 95 | 1013.1 |
| 20260507045239 | 62 | 98 | 0.9 | 2.6 | 0.01 | 0.15 | 0.01 | 95 | 1013.0 |
| 20260507045139 | 62 | 98 | 0.9 | 2.6 | 0.01 | 0.15 | 0.01 | 95 | 1013.0 |
| 20260507045040 | 62 | 97 | 0.9 | 2.6 | 0.01 | 0.15 | 0.01 | 95 | 1013.0 |
| 20260507044938 | 62 | 96 | 0.9 | 4.3 | 0.01 | 0.15 | 0.01 | 95 | 1013.1 |
| 20260507044839 | 62 | 96 | 0.9 | 4.3 | 0.01 | 0.15 | 0.01 | 95 | 1013.1 |
| 20260507044738 | 62 | 96 | 0.9 | 4.3 | 0.01 | 0.15 | 0.01 | 95 | 1013.0 |
| 20260507044640 | 62 | 96 | 0.9 | 4.3 | 0.01 | 0.15 | 0.01 | 95 | 1013.0 |
| 20260507044538 | 62 | 96 | 0.9 | 4.3 | 0.01 | 0.15 | 0.01 | 95 | 1013.0 |
| 20260507044438 | 62 | 96 | 0.9 | 4.3 | 0.01 | 0.15 | 0.01 | 95 | 1013.1 |
| 20260507044340 | 62 | 96 | 0.9 | 4.3 | 0.01 | 0.15 | 0.01 | 95 | 1013.3 |
| 20260507044238 | 62 | 96 | 0.9 | 4.3 | 0.01 | 0.15 | 0.01 | 95 | 1013.7 |
| 20260507044139 | 62 | 101 | 0.9 | 4.3 | 0.01 | 0.15 | 0.01 | 95 | 1013.7 |
| 20260507044040 | 62 | 101 | 0.9 | 4.3 | 0.01 | 0.15 | 0.01 | 95 | 1013.8 |
| 20260507043939 | 62 | 185 | 0.9 | 4.3 | 0.01 | 0.15 | 0.01 | 95 | 1013.9 |
| 20260507043835 | 62 | 163 | 0.9 | 4.3 | 0.01 | 0.15 | 0.01 | 95 | 1013.9 |
| 20260507043736 | 62 | 165 | 0.9 | 4.3 | 0.01 | 0.15 | 0.01 | 95 | 1013.8 |
| 20260507043634 | 62 | 55 | 0.9 | 4.3 | 0.01 | 0.15 | 0.01 | 95 | 1013.9 |
| 20260507043536 | 62 | 34 | 0.9 | 7.8 | 0.01 | 0.15 | 0.01 | 95 | 1013.8 |
| 20260507043436 | 62 | 182 | 1.7 | 7.8 | 0.01 | 0.15 | 0.01 | 95 | 1013.7 |
| 20260507043335 | 62 | 182 | 1.7 | 7.8 | 0.01 | 0.15 | 0.01 | 95 | 1013.7 |
| 20260507043234 | 62 | 182 | 1.7 | 7.8 | 0.01 | 0.15 | 0.01 | 95 | 1013.5 |
| 20260507043134 | 62 | 182 | 1.7 | 7.8 | 0.01 | 0.15 | 0.01 | 95 | 1013.4 |
| 20260507043036 | 62 | 182 | 1.7 | 7.8 | 0.01 | 0.15 | 0.01 | 95 | 1013.3 |
| 20260507042934 | 62 | 182 | 2.6 | 7.8 | 0.01 | 0.15 | 0.01 | 95 | 1013.3 |
| 20260507042834 | 62 | 183 | 2.6 | 7.8 | 0.01 | 0.15 | 0.01 | 95 | 1013.1 |
| 20260507042734 | 62 | 183 | 2.6 | 7.8 | 0.01 | 0.15 | 0.01 | 95 | 1013.0 |
| 20260507042634 | 62 | 183 | 2.6 | 7.8 | 0.00 | 0.14 | 0.01 | 95 | 1013.0 |
| 20260507042535 | 62 | 168 | 2.6 | 7.8 | 0.00 | 0.14 | 0.00 | 95 | 1013.2 |
| 20260507042435 | 62 | 169 | 1.7 | 7.8 | 0.00 | 0.14 | 0.00 | 95 | 1013.2 |
| 20260507042335 | 62 | 166 | 1.7 | 7.8 | 0.00 | 0.14 | 0.00 | 95 | 1013.2 |
| 20260507042235 | 62 | 166 | 1.7 | 7.8 | 0.00 | 0.14 | 0.00 | 95 | 1013.1 |
| 20260507042135 | 62 | 169 | 1.7 | 7.8 | 0.00 | 0.14 | 0.00 | 95 | 1013.1 |
| 20260507042034 | 62 | 168 | 1.7 | 7.8 | 0.00 | 0.14 | 0.00 | 95 | 1013.1 |
| 20260507041934 | 62 | 150 | 1.7 | 6.1 | 0.00 | 0.14 | 0.00 | 95 | 1013.1 |
| 20260507041834 | 62 | 132 | 1.7 | 6.1 | 0.00 | 0.14 | 0.00 | 95 | 1013.2 |
| 20260507041736 | 62 | 167 | 1.7 | 6.1 | 0.00 | 0.14 | 0.00 | 95 | 1013.5 |
| 20260507041635 | 62 | 162 | 1.7 | 4.3 | 0.00 | 0.14 | 0.00 | 95 | 1013.7 |
| 20260507041535 | 62 | 162 | 1.7 | 4.3 | 0.00 | 0.14 | 0.00 | 95 | 1013.7 |
| 20260507041435 | 62 | 162 | 1.7 | 4.3 | 0.00 | 0.14 | 0.00 | 95 | 1013.4 |
| 20260507041335 | 62 | 162 | 1.7 | 4.3 | 0.00 | 0.14 | 0.00 | 95 | 1013.2 |
| 20260507041235 | 62 | 162 | 1.7 | 4.3 | 0.00 | 0.14 | 0.00 | 95 | 1013.1 |
| 20260507041135 | 62 | 160 | 2.6 | 4.3 | 0.00 | 0.14 | 0.00 | 95 | 1013.0 |
| 20260507041035 | 62 | 157 | 2.6 | 5.2 | 0.00 | 0.14 | 0.00 | 95 | 1012.7 |
| 20260507040934 | 62 | 157 | 2.6 | 5.2 | 0.00 | 0.14 | 0.00 | 95 | 1012.6 |
| 20260507040836 | 62 | 166 | 2.6 | 5.2 | 0.00 | 0.14 | 0.00 | 95 | 1012.8 |
| 20260507040734 | 62 | 166 | 2.6 | 5.2 | 0.00 | 0.14 | 0.00 | 95 | 1012.8 |
| 20260507040635 | 62 | 168 | 2.6 | 5.2 | 0.00 | 0.14 | 0.00 | 95 | 1012.9 |
| 20260507040536 | 62 | 171 | 2.6 | 5.2 | 0.00 | 0.14 | 0.00 | 95 | 1013.0 |
| 20260507040434 | 62 | 171 | 2.6 | 5.2 | 0.00 | 0.14 | 0.00 | 95 | 1012.9 |
| 20260507040336 | 62 | 176 | 2.6 | 5.2 | 0.00 | 0.14 | 0.00 | 95 | 1012.9 |
| 20260507040235 | 62 | 177 | 2.6 | 5.2 | 0.00 | 0.14 | 0.00 | 95 | 1012.8 |
| 20260507040126 | 62 | 177 | 2.6 | 5.2 | 0.00 | 0.14 | 0.00 | 95 | 1012.6 |
| 20260507040026 | 62 | 157 | 2.6 | 7.8 | 0.00 | 0.14 | 0.00 | 95 | 1012.5 |
| 20260507035928 | 62 | 147 | 2.6 | 7.8 | 0.00 | 0.14 | 0.14 | 95 | 1012.5 |
| 20260507035826 | 62 | 136 | 2.6 | 7.8 | 0.00 | 0.14 | 0.14 | 95 | 1012.6 |
| 20260507035728 | 62 | 178 | 1.7 | 7.8 | 0.00 | 0.14 | 0.14 | 95 | 1012.8 |
| 20260507035620 | 62 | 169 | 1.7 | 7.8 | 0.00 | 0.14 | 0.14 | 95 | 1012.9 |
| 20260507035521 | 62 | 169 | 1.7 | 7.8 | 0.00 | 0.14 | 0.14 | 95 | 1013.1 |
| 20260507035422 | 62 | 153 | 1.7 | 7.8 | 0.00 | 0.14 | 0.14 | 95 | 1013.1 |
| 20260507035319 | 62 | 163 | 1.7 | 7.8 | 0.00 | 0.14 | 0.14 | 95 | 1013.1 |
| 20260507035218 | 62 | 159 | 1.7 | 7.8 | 0.00 | 0.14 | 0.14 | 95 | 1013.1 |
| 20260507035110 | 62 | 153 | 1.7 | 7.8 | 0.00 | 0.14 | 0.14 | 95 | 1013.0 |
| 20260507035012 | 62 | 169 | 1.7 | 6.1 | 0.00 | 0.14 | 0.14 | 95 | 1013.2 |
| 20260507034912 | 62 | 170 | 1.7 | 6.1 | 0.00 | 0.14 | 0.14 | 95 | 1013.1 |
| 20260507034812 | 62 | 178 | 0.9 | 6.1 | 0.00 | 0.14 | 0.14 | 95 | 1013.1 |
| 20260507034712 | 62 | 211 | 0.9 | 6.1 | 0.00 | 0.14 | 0.14 | 95 | 1013.1 |
| 20260507034605 | 62 | 212 | 0.9 | 6.1 | 0.00 | 0.14 | 0.14 | 95 | 1012.9 |
| 20260507034505 | 62 | 189 | 0.9 | 5.2 | 0.00 | 0.14 | 0.14 | 95 | 1012.8 |
| 20260507034406 | 62 | 167 | 0.9 | 5.2 | 0.00 | 0.14 | 0.14 | 95 | 1012.9 |
| 20260507034305 | 62 | 234 | 0.9 | 5.2 | 0.00 | 0.14 | 0.14 | 95 | 1012.9 |
| 20260507034205 | 62 | 107 | 0.9 | 5.2 | 0.00 | 0.14 | 0.14 | 95 | 1012.9 |
| 20260507034100 | 62 | 119 | 1.7 | 5.2 | 0.00 | 0.14 | 0.14 | 95 | 1013.0 |
| 20260507034000 | 62 | 118 | 1.7 | 6.1 | 0.00 | 0.14 | 0.14 | 95 | 1013.0 |
| 20260507033902 | 62 | 165 | 1.7 | 6.1 | 0.01 | 0.14 | 0.14 | 95 | 1012.9 |
| 20260507033801 | 62 | 164 | 1.7 | 6.1 | 0.01 | 0.14 | 0.14 | 95 | 1012.9 |
| 20260507033701 | 62 | 164 | 1.7 | 6.1 | 0.01 | 0.14 | 0.14 | 95 | 1012.8 |
| 20260507033602 | 62 | 167 | 1.7 | 6.1 | 0.01 | 0.14 | 0.14 | 95 | 1012.8 |
| 20260507033502 | 62 | 174 | 1.7 | 6.1 | 0.01 | 0.14 | 0.14 | 95 | 1012.8 |
| 20260507033358 | 62 | 181 | 1.7 | 6.1 | 0.01 | 0.14 | 0.14 | 95 | 1012.7 |
| 20260507033259 | 62 | 182 | 1.7 | 6.1 | 0.02 | 0.14 | 0.14 | 95 | 1012.7 |
| 20260507033202 | 62 | 184 | 2.6 | 6.1 | 0.02 | 0.14 | 0.14 | 95 | 1012.5 |
| 20260507033058 | 62 | 184 | 2.6 | 7.0 | 0.02 | 0.14 | 0.14 | 95 | 1012.5 |
| 20260507032958 | 62 | 163 | 2.6 | 7.0 | 0.02 | 0.14 | 0.14 | 95 | 1012.5 |
| 20260507032859 | 62 | 164 | 2.6 | 8.7 | 0.02 | 0.14 | 0.14 | 95 | 1012.4 |
| 20260507032658 | 62 | 150 | 2.6 | 8.7 | 0.02 | 0.14 | 0.14 | 95 | 1012.5 |
| 20260507032558 | 62 | 142 | 2.6 | 8.7 | 0.02 | 0.14 | 0.14 | 95 | 1012.5 |
| 20260507032459 | 62 | 155 | 2.6 | 8.7 | 0.02 | 0.14 | 0.14 | 95 | 1012.5 |
| 20260507032355 | 62 | 176 | 2.6 | 8.7 | 0.02 | 0.14 | 0.14 | 94 | 1012.6 |
| 20260507032255 | 62 | 166 | 2.6 | 8.7 | 0.02 | 0.14 | 0.14 | 94 | 1012.6 |
| 20260507032154 | 62 | 138 | 2.6 | 8.7 | 0.02 | 0.14 | 0.14 | 94 | 1012.6 |
| 20260507032054 | 62 | 201 | 2.6 | 8.7 | 0.02 | 0.14 | 0.14 | 94 | 1012.5 |
| 20260507031954 | 62 | 192 | 2.6 | 8.7 | 0.02 | 0.14 | 0.14 | 94 | 1012.5 |
| 20260507031856 | 62 | 255 | 2.6 | 8.7 | 0.02 | 0.14 | 0.14 | 94 | 1012.5 |
| 20260507031754 | 62 | 163 | 2.6 | 8.7 | 0.02 | 0.14 | 0.14 | 94 | 1012.4 |
| 20260507031652 | 62 | 174 | 2.6 | 7.8 | 0.03 | 0.14 | 0.14 | 94 | 1012.5 |
| 20260507031550 | 62 | 175 | 2.6 | 7.8 | 0.03 | 0.14 | 0.14 | 94 | 1012.4 |
| 20260507031450 | 62 | 224 | 3.5 | 7.8 | 0.03 | 0.14 | 0.14 | 94 | 1012.2 |
| 20260507031350 | 62 | 153 | 3.5 | 7.8 | 0.03 | 0.14 | 0.14 | 94 | 1012.2 |
| 20260507031252 | 62 | 205 | 3.5 | 7.8 | 0.03 | 0.14 | 0.14 | 94 | 1012.0 |
| 20260507031150 | 62 | 227 | 3.5 | 7.8 | 0.03 | 0.14 | 0.14 | 94 | 1011.8 |
| 20260507031048 | 62 | 179 | 3.5 | 7.8 | 0.03 | 0.14 | 0.14 | 94 | 1011.7 |
| 20260507030949 | 62 | 182 | 3.5 | 7.8 | 0.03 | 0.14 | 0.14 | 94 | 1011.6 |
| 20260507030848 | 62 | 167 | 3.5 | 7.8 | 0.03 | 0.14 | 0.14 | 94 | 1011.6 |
| 20260507030750 | 62 | 159 | 3.5 | 6.1 | 0.03 | 0.14 | 0.14 | 94 | 1011.7 |
| 20260507030644 | 62 | 204 | 2.6 | 6.1 | 0.04 | 0.14 | 0.14 | 94 | 1011.6 |
| 20260507030545 | 62 | 157 | 2.6 | 6.1 | 0.04 | 0.14 | 0.14 | 94 | 1011.7 |
| 20260507030446 | 62 | 188 | 2.6 | 7.0 | 0.04 | 0.14 | 0.14 | 94 | 1011.7 |
| 20260507030344 | 62 | 176 | 2.6 | 7.0 | 0.04 | 0.14 | 0.14 | 94 | 1011.8 |
| 20260507030245 | 62 | 162 | 2.6 | 7.0 | 0.04 | 0.14 | 0.14 | 94 | 1012.0 |
| 20260507030145 | 62 | 155 | 3.5 | 7.0 | 0.04 | 0.14 | 0.14 | 94 | 1012.0 |
| 20260507030044 | 62 | 180 | 3.5 | 7.0 | 0.04 | 0.14 | 0.14 | 94 | 1012.1 |
| 20260507025944 | 62 | 191 | 2.6 | 7.0 | 0.04 | 0.14 | 0.14 | 93 | 1012.2 |
| 20260507025842 | 62 | 191 | 2.6 | 7.0 | 0.04 | 0.14 | 0.14 | 93 | 1012.2 |
| 20260507025741 | 62 | 158 | 2.6 | 7.0 | 0.04 | 0.14 | 0.14 | 93 | 1012.2 |
| 20260507025641 | 62 | 172 | 2.6 | 7.0 | 0.04 | 0.14 | 0.14 | 93 | 1012.2 |
| 20260507025541 | 62 | 196 | 2.6 | 7.0 | 0.04 | 0.14 | 0.14 | 93 | 1012.3 |
| 20260507025440 | 62 | 165 | 2.6 | 7.0 | 0.04 | 0.14 | 0.14 | 94 | 1012.3 |
| 20260507025340 | 62 | 184 | 2.6 | 7.0 | 0.04 | 0.14 | 0.14 | 94 | 1012.3 |
| 20260507025240 | 62 | 157 | 2.6 | 7.0 | 0.04 | 0.14 | 0.14 | 94 | 1012.3 |
| 20260507025140 | 62 | 175 | 2.6 | 7.0 | 0.04 | 0.14 | 0.14 | 94 | 1012.3 |
| 20260507025041 | 62 | 158 | 2.6 | 7.0 | 0.04 | 0.14 | 0.14 | 94 | 1012.3 |
| 20260507024941 | 62 | 184 | 2.6 | 7.0 | 0.04 | 0.14 | 0.14 | 94 | 1012.3 |
| 20260507024841 | 62 | 185 | 2.6 | 7.0 | 0.04 | 0.14 | 0.14 | 94 | 1012.5 |
| 20260507024742 | 62 | 187 | 2.6 | 7.0 | 0.04 | 0.14 | 0.14 | 94 | 1012.6 |
| 20260507024639 | 62 | 188 | 1.7 | 7.0 | 0.04 | 0.14 | 0.14 | 94 | 1012.5 |
| 20260507024539 | 62 | 188 | 1.7 | 7.0 | 0.05 | 0.14 | 0.14 | 94 | 1012.4 |
| 20260507024440 | 62 | 146 | 1.7 | 7.0 | 0.05 | 0.14 | 0.14 | 94 | 1012.2 |
| 20260507024338 | 62 | 105 | 1.7 | 7.0 | 0.05 | 0.14 | 0.14 | 94 | 1012.2 |
| 20260507024238 | 62 | 138 | 1.7 | 7.0 | 0.05 | 0.14 | 0.14 | 94 | 1012.6 |
| 20260507024139 | 62 | 135 | 0.9 | 7.0 | 0.05 | 0.14 | 0.14 | 94 | 1013.2 |
| 20260507024039 | 62 | 111 | 0.9 | 5.2 | 0.05 | 0.14 | 0.14 | 94 | 1013.5 |
| 20260507023938 | 62 | 104 | 0.9 | 5.2 | 0.05 | 0.14 | 0.14 | 94 | 1013.8 |
| 20260507023838 | 62 | 341 | 0.9 | 5.2 | 0.04 | 0.13 | 0.14 | 94 | 1013.9 |
| 20260507023738 | 62 | 317 | 0.9 | 5.2 | 0.04 | 0.13 | 0.13 | 94 | 1014.0 |
| 20260507023638 | 62 | 180 | 0.9 | 5.2 | 0.04 | 0.13 | 0.13 | 94 | 1013.9 |
| 20260507023537 | 62 | 180 | 1.7 | 5.2 | 0.04 | 0.13 | 0.13 | 94 | 1013.9 |
| 20260507023437 | 62 | 186 | 1.7 | 5.2 | 0.04 | 0.13 | 0.13 | 94 | 1014.0 |
| 20260507023337 | 62 | 180 | 0.9 | 3.5 | 0.04 | 0.13 | 0.13 | 94 | 1014.1 |
| 20260507023237 | 62 | 88 | 0.9 | 3.5 | 0.03 | 0.12 | 0.13 | 94 | 1014.1 |
| 20260507023138 | 62 | 120 | 0.9 | 3.5 | 0.03 | 0.12 | 0.12 | 94 | 1014.0 |
| 20260507023037 | 62 | 87 | 0.9 | 2.6 | 0.03 | 0.12 | 0.12 | 94 | 1014.0 |
| 20260507022936 | 62 | 114 | 0.9 | 2.6 | 0.03 | 0.12 | 0.12 | 94 | 1013.9 |
| 20260507022837 | 62 | 113 | 0.9 | 3.5 | 0.03 | 0.12 | 0.12 | 94 | 1013.9 |
| 20260507022736 | 62 | 105 | 0.9 | 3.5 | 0.03 | 0.12 | 0.12 | 94 | 1013.8 |
| 20260507022637 | 62 | 97 | 1.7 | 3.5 | 0.03 | 0.12 | 0.12 | 94 | 1013.8 |
| 20260507022537 | 62 | 85 | 1.7 | 6.1 | 0.03 | 0.12 | 0.12 | 94 | 1013.9 |
| 20260507022436 | 62 | 103 | 1.7 | 6.1 | 0.03 | 0.12 | 0.12 | 94 | 1013.8 |
| 20260507022336 | 62 | 103 | 1.7 | 6.1 | 0.03 | 0.12 | 0.12 | 94 | 1013.5 |
| 20260507022237 | 62 | 103 | 1.7 | 6.1 | 0.03 | 0.12 | 0.12 | 93 | 1013.5 |
| 20260507022136 | 62 | 169 | 1.7 | 6.1 | 0.03 | 0.12 | 0.12 | 93 | 1013.5 |
| 20260507022038 | 62 | 169 | 1.7 | 6.1 | 0.03 | 0.12 | 0.12 | 93 | 1013.7 |
| 20260507021937 | 63 | 169 | 1.7 | 6.1 | 0.03 | 0.12 | 0.12 | 94 | 1013.7 |
| 20260507021836 | 63 | 175 | 1.7 | 6.1 | 0.03 | 0.12 | 0.12 | 93 | 1013.7 |
| 20260507021736 | 62 | 169 | 1.7 | 6.1 | 0.03 | 0.12 | 0.12 | 94 | 1013.7 |
| 20260507021636 | 62 | 143 | 0.9 | 6.1 | 0.02 | 0.11 | 0.12 | 94 | 1013.5 |
| 20260507021537 | 63 | 159 | 0.9 | 4.3 | 0.02 | 0.11 | 0.11 | 94 | 1013.7 |
| 20260507021437 | 63 | 153 | 0.9 | 3.5 | 0.02 | 0.11 | 0.11 | 94 | 1013.7 |
| 20260507021336 | 63 | 109 | 0.9 | 2.6 | 0.02 | 0.11 | 0.11 | 94 | 1013.5 |
| 20260507021237 | 63 | 109 | 0.9 | 3.5 | 0.02 | 0.11 | 0.11 | 94 | 1013.7 |
| 20260507021136 | 63 | 109 | 0.9 | 3.5 | 0.02 | 0.11 | 0.11 | 93 | 1013.5 |
| 20260507021037 | 63 | 98 | 0.9 | 3.5 | 0.02 | 0.11 | 0.11 | 94 | 1013.5 |
| 20260507020938 | 63 | 51 | 0.9 | 3.5 | 0.02 | 0.11 | 0.11 | 94 | 1013.5 |
| 20260507020837 | 63 | 34 | 1.7 | 3.5 | 0.02 | 0.11 | 0.11 | 94 | 1013.5 |
| 20260507020736 | 63 | 227 | 1.7 | 3.5 | 0.02 | 0.11 | 0.11 | 93 | 1013.5 |
| 20260507020637 | 63 | 200 | 1.7 | 3.5 | 0.01 | 0.10 | 0.10 | 94 | 1013.5 |
| 20260507020537 | 63 | 133 | 1.7 | 4.3 | 0.01 | 0.10 | 0.10 | 93 | 1013.5 |
| 20260507020432 | 63 | 134 | 1.7 | 6.1 | 0.01 | 0.10 | 0.10 | 94 | 1013.5 |
| 20260507020333 | 63 | 186 | 1.7 | 6.1 | 0.01 | 0.10 | 0.10 | 94 | 1013.4 |
| 20260507020233 | 63 | 171 | 1.7 | 6.1 | 0.01 | 0.10 | 0.10 | 93 | 1013.4 |
| 20260507020133 | 63 | 246 | 1.7 | 6.1 | 0.01 | 0.10 | 0.10 | 93 | 1013.4 |
| 20260507020034 | 63 | 97 | 1.7 | 6.1 | 0.02 | 0.10 | 0.10 | 94 | 1013.4 |
| 20260507015932 | 63 | 96 | 1.7 | 6.1 | 0.02 | 0.10 | 0.10 | 94 | 1013.5 |
| 20260507015833 | 63 | 94 | 1.7 | 6.1 | 0.02 | 0.10 | 0.10 | 93 | 1013.5 |
| 20260507015732 | 63 | 348 | 1.7 | 6.1 | 0.02 | 0.10 | 0.10 | 94 | 1013.4 |
| 20260507015634 | 63 | 216 | 1.7 | 6.1 | 0.02 | 0.10 | 0.10 | 94 | 1013.5 |
| 20260507015533 | 63 | 186 | 1.7 | 6.1 | 0.02 | 0.10 | 0.10 | 94 | 1013.3 |
| 20260507015432 | 63 | 135 | 1.7 | 6.1 | 0.02 | 0.10 | 0.10 | 94 | 1013.3 |
| 20260507015332 | 63 | 61 | 1.7 | 6.1 | 0.02 | 0.10 | 0.10 | 94 | 1013.4 |
| 20260507015234 | 63 | 225 | 1.7 | 5.2 | 0.02 | 0.10 | 0.10 | 94 | 1013.5 |
| 20260507015133 | 63 | 97 | 1.7 | 4.3 | 0.02 | 0.10 | 0.10 | 94 | 1013.5 |
| 20260507015033 | 63 | 184 | 0.9 | 4.3 | 0.02 | 0.10 | 0.10 | 94 | 1013.4 |
| 20260507014932 | 63 | 213 | 1.7 | 4.3 | 0.02 | 0.10 | 0.10 | 94 | 1013.4 |
| 20260507014833 | 63 | 170 | 1.7 | 4.3 | 0.02 | 0.10 | 0.10 | 94 | 1013.5 |
| 20260507014732 | 63 | 141 | 1.7 | 4.3 | 0.02 | 0.10 | 0.10 | 94 | 1013.5 |
| 20260507014632 | 63 | 180 | 0.9 | 4.3 | 0.02 | 0.10 | 0.10 | 94 | 1013.5 |
| 20260507014532 | 63 | 26 | 1.7 | 4.3 | 0.01 | 0.09 | 0.10 | 94 | 1013.5 |
| 20260507014432 | 63 | 345 | 1.7 | 5.2 | 0.01 | 0.09 | 0.09 | 94 | 1013.4 |
| 20260507014334 | 63 | 345 | 1.7 | 5.2 | 0.01 | 0.09 | 0.09 | 94 | 1013.4 |
| 20260507014233 | 63 | 91 | 1.7 | 5.2 | 0.01 | 0.09 | 0.09 | 94 | 1013.5 |
| 20260507014132 | 63 | 108 | 1.7 | 6.1 | 0.01 | 0.09 | 0.09 | 94 | 1013.4 |
| 20260507014034 | 63 | 74 | 1.7 | 6.1 | 0.01 | 0.09 | 0.09 | 94 | 1013.5 |
| 20260507013933 | 63 | 257 | 1.7 | 6.1 | 0.01 | 0.09 | 0.09 | 94 | 1013.5 |
| 20260507013832 | 63 | 178 | 1.7 | 6.1 | 0.02 | 0.09 | 0.09 | 94 | 1013.5 |
| 20260507013733 | 63 | 69 | 1.7 | 6.1 | 0.02 | 0.09 | 0.09 | 94 | 1013.5 |
| 20260507013632 | 63 | 355 | 1.7 | 6.1 | 0.02 | 0.09 | 0.09 | 93 | 1013.5 |
| 20260507013534 | 63 | 75 | 1.7 | 6.1 | 0.02 | 0.09 | 0.09 | 93 | 1013.4 |
| 20260507013433 | 63 | 194 | 1.7 | 6.1 | 0.02 | 0.09 | 0.09 | 93 | 1013.3 |
| 20260507013332 | 63 | 30 | 1.7 | 6.1 | 0.02 | 0.09 | 0.09 | 94 | 1013.3 |
| 20260507013234 | 63 | 22 | 1.7 | 6.1 | 0.02 | 0.09 | 0.09 | 93 | 1013.3 |
| 20260507013129 | 63 | 271 | 1.7 | 4.3 | 0.02 | 0.09 | 0.09 | 93 | 1013.2 |
| 20260507013029 | 63 | 274 | 1.7 | 4.3 | 0.02 | 0.09 | 0.09 | 94 | 1013.2 |
| 20260507012929 | 63 | 211 | 1.7 | 4.3 | 0.02 | 0.09 | 0.09 | 93 | 1013.1 |
| 20260507012828 | 63 | 101 | 1.7 | 4.3 | 0.02 | 0.09 | 0.09 | 93 | 1013.1 |
| 20260507012728 | 63 | 105 | 1.7 | 4.3 | 0.02 | 0.09 | 0.09 | 93 | 1013.0 |
| 20260507012629 | 63 | 209 | 0.9 | 4.3 | 0.02 | 0.09 | 0.09 | 93 | 1013.1 |
| 20260507012528 | 63 | 182 | 0.9 | 4.3 | 0.02 | 0.09 | 0.09 | 93 | 1013.1 |
| 20260507012428 | 63 | 184 | 0.9 | 4.3 | 0.02 | 0.09 | 0.09 | 93 | 1013.2 |
| 20260507012328 | 63 | 251 | 0.9 | 3.5 | 0.02 | 0.09 | 0.09 | 93 | 1013.1 |
| 20260507012228 | 63 | 73 | 0.9 | 3.5 | 0.03 | 0.09 | 0.09 | 93 | 1013.0 |
| 20260507012128 | 63 | 355 | 0.9 | 3.5 | 0.03 | 0.09 | 0.09 | 93 | 1012.9 |
| 20260507012030 | 63 | 355 | 0.9 | 3.5 | 0.03 | 0.09 | 0.09 | 93 | 1012.9 |
| 20260507011929 | 63 | 182 | 0.9 | 8.7 | 0.03 | 0.09 | 0.09 | 93 | 1012.9 |
| 20260507011829 | 63 | 163 | 0.9 | 8.7 | 0.03 | 0.09 | 0.09 | 93 | 1012.9 |
| 20260507011729 | 63 | 163 | 0.9 | 8.7 | 0.03 | 0.09 | 0.09 | 93 | 1012.8 |
| 20260507011630 | 63 | 150 | 1.7 | 8.7 | 0.03 | 0.09 | 0.09 | 93 | 1012.6 |
| 20260507011528 | 63 | 150 | 1.7 | 8.7 | 0.03 | 0.09 | 0.09 | 93 | 1012.5 |
| 20260507011429 | 63 | 149 | 1.7 | 8.7 | 0.04 | 0.09 | 0.09 | 93 | 1012.5 |
| 20260507011328 | 63 | 151 | 1.7 | 8.7 | 0.04 | 0.09 | 0.09 | 93 | 1012.5 |
| 20260507011229 | 63 | 177 | 1.7 | 8.7 | 0.04 | 0.09 | 0.09 | 93 | 1012.5 |
| 20260507011128 | 63 | 177 | 1.7 | 8.7 | 0.04 | 0.09 | 0.09 | 93 | 1012.6 |
| 20260507011028 | 63 | 194 | 1.7 | 8.7 | 0.04 | 0.09 | 0.09 | 93 | 1012.5 |
| 20260507010928 | 63 | 98 | 1.7 | 6.1 | 0.04 | 0.09 | 0.09 | 93 | 1012.5 |
| 20260507010830 | 63 | 94 | 1.7 | 6.1 | 0.04 | 0.09 | 0.09 | 93 | 1012.6 |
| 20260507010728 | 63 | 346 | 1.7 | 6.1 | 0.04 | 0.09 | 0.09 | 93 | 1012.5 |
| 20260507010630 | 63 | 191 | 1.7 | 6.1 | 0.04 | 0.09 | 0.09 | 93 | 1012.4 |
| 20260507010521 | 63 | 312 | 1.7 | 5.2 | 0.04 | 0.09 | 0.09 | 93 | 1012.4 |
| 20260507010421 | 63 | 101 | 1.7 | 6.1 | 0.04 | 0.09 | 0.09 | 93 | 1012.3 |
| 20260507010321 | 63 | 128 | 1.7 | 6.1 | 0.04 | 0.09 | 0.09 | 93 | 1012.3 |
| 20260507010222 | 63 | 136 | 2.6 | 6.1 | 0.05 | 0.09 | 0.09 | 93 | 1012.4 |
| 20260507010122 | 63 | 87 | 2.6 | 6.1 | 0.04 | 0.08 | 0.09 | 93 | 1012.3 |
| 20260507010021 | 63 | 150 | 2.6 | 6.1 | 0.04 | 0.08 | 0.08 | 93 | 1012.3 |
| 20260507005921 | 63 | 141 | 2.6 | 6.1 | 0.04 | 0.08 | 0.08 | 93 | 1012.3 |
| 20260507005821 | 63 | 143 | 2.6 | 6.1 | 0.04 | 0.08 | 0.08 | 93 | 1012.3 |
| 20260507005720 | 63 | 144 | 2.6 | 6.1 | 0.04 | 0.08 | 0.08 | 93 | 1012.3 |
| 20260507005620 | 63 | 148 | 2.6 | 6.1 | 0.04 | 0.08 | 0.08 | 93 | 1012.3 |
| 20260507005520 | 63 | 148 | 2.6 | 6.1 | 0.04 | 0.08 | 0.08 | 93 | 1012.4 |
| 20260507005421 | 63 | 177 | 2.6 | 5.2 | 0.04 | 0.08 | 0.08 | 93 | 1012.4 |
| 20260507005321 | 63 | 215 | 2.6 | 6.1 | 0.04 | 0.08 | 0.08 | 93 | 1012.4 |
| 20260507005222 | 63 | 130 | 2.6 | 7.0 | 0.04 | 0.08 | 0.08 | 93 | 1012.4 |
| 20260507005121 | 63 | 182 | 2.6 | 7.0 | 0.04 | 0.08 | 0.08 | 93 | 1012.4 |
| 20260507005020 | 63 | 149 | 2.6 | 7.8 | 0.04 | 0.08 | 0.08 | 93 | 1012.4 |
| 20260507004820 | 63 | 165 | 2.6 | 7.8 | 0.04 | 0.08 | 0.08 | 93 | 1012.4 |
| 20260507004721 | 63 | 165 | 3.5 | 7.8 | 0.04 | 0.08 | 0.08 | 93 | 1012.5 |
| 20260507004620 | 63 | 134 | 2.6 | 7.8 | 0.04 | 0.08 | 0.08 | 93 | 1012.5 |
| 20260507004520 | 63 | 138 | 3.5 | 7.8 | 0.04 | 0.08 | 0.08 | 93 | 1012.5 |
| 20260507004421 | 63 | 274 | 3.5 | 7.8 | 0.04 | 0.08 | 0.08 | 93 | 1012.4 |
| 20260507004321 | 63 | 136 | 3.5 | 7.8 | 0.04 | 0.08 | 0.08 | 93 | 1012.5 |
| 20260507004221 | 63 | 178 | 3.5 | 11.3 | 0.04 | 0.08 | 0.08 | 93 | 1012.4 |
| 20260507004121 | 63 | 141 | 3.5 | 11.3 | 0.04 | 0.08 | 0.08 | 93 | 1012.4 |
| 20260507004021 | 63 | 165 | 3.5 | 11.3 | 0.05 | 0.08 | 0.08 | 93 | 1012.5 |
| 20260507003920 | 63 | 168 | 4.3 | 11.3 | 0.05 | 0.08 | 0.08 | 93 | 1012.6 |
| 20260507003821 | 63 | 166 | 4.3 | 11.3 | 0.04 | 0.07 | 0.08 | 93 | 1012.6 |
| 20260507003721 | 63 | 77 | 4.3 | 11.3 | 0.04 | 0.07 | 0.07 | 93 | 1012.6 |
| 20260507003621 | 63 | 150 | 4.3 | 11.3 | 0.04 | 0.07 | 0.07 | 93 | 1012.6 |
| 20260507003522 | 63 | 161 | 4.3 | 11.3 | 0.04 | 0.07 | 0.07 | 93 | 1012.5 |
| 20260507003420 | 63 | 173 | 4.3 | 11.3 | 0.04 | 0.07 | 0.07 | 93 | 1012.4 |
| 20260507003322 | 63 | 148 | 4.3 | 11.3 | 0.04 | 0.07 | 0.07 | 93 | 1012.5 |
| 20260507003216 | 63 | 182 | 4.3 | 10.4 | 0.04 | 0.07 | 0.07 | 93 | 1012.5 |
| 20260507003118 | 63 | 162 | 4.3 | 10.4 | 0.04 | 0.07 | 0.07 | 93 | 1012.6 |
| 20260507003017 | 63 | 138 | 4.3 | 10.4 | 0.04 | 0.07 | 0.07 | 93 | 1012.4 |
| 20260507002916 | 63 | 160 | 4.3 | 8.7 | 0.04 | 0.07 | 0.07 | 93 | 1012.5 |
| 20260507002817 | 63 | 183 | 4.3 | 8.7 | 0.04 | 0.07 | 0.07 | 93 | 1012.6 |
| 20260507002716 | 63 | 171 | 4.3 | 8.7 | 0.04 | 0.07 | 0.07 | 93 | 1012.4 |
| 20260507002617 | 63 | 163 | 4.3 | 8.7 | 0.04 | 0.07 | 0.07 | 93 | 1012.5 |
| 20260507002517 | 63 | 158 | 4.3 | 9.6 | 0.04 | 0.07 | 0.07 | 93 | 1012.6 |
| 20260507002417 | 63 | 148 | 4.3 | 9.6 | 0.04 | 0.07 | 0.07 | 93 | 1012.6 |
| 20260507002316 | 63 | 169 | 4.3 | 9.6 | 0.03 | 0.06 | 0.07 | 93 | 1012.5 |
| 20260507002216 | 63 | 139 | 3.5 | 9.6 | 0.03 | 0.06 | 0.06 | 93 | 1012.4 |
| 20260507002116 | 63 | 177 | 3.5 | 9.6 | 0.03 | 0.06 | 0.06 | 93 | 1012.4 |
| 20260507002017 | 63 | 143 | 3.5 | 9.6 | 0.03 | 0.06 | 0.06 | 93 | 1012.4 |
| 20260507001916 | 63 | 187 | 3.5 | 9.6 | 0.03 | 0.06 | 0.06 | 93 | 1012.4 |
| 20260507001816 | 63 | 163 | 3.5 | 9.6 | 0.03 | 0.06 | 0.06 | 93 | 1012.4 |
| 20260507001718 | 63 | 144 | 3.5 | 9.6 | 0.03 | 0.06 | 0.06 | 92 | 1012.7 |
| 20260507001615 | 63 | 161 | 3.5 | 9.6 | 0.03 | 0.06 | 0.06 | 92 | 1012.7 |
| 20260507001515 | 63 | 143 | 3.5 | 9.6 | 0.03 | 0.06 | 0.06 | 93 | 1012.7 |
| 20260507001415 | 63 | 216 | 3.5 | 9.6 | 0.02 | 0.05 | 0.05 | 92 | 1012.7 |
| 20260507001311 | 64 | 80 | 3.5 | 9.6 | 0.02 | 0.05 | 0.05 | 92 | 1012.8 |
| 20260507001208 | 63 | 272 | 4.3 | 9.6 | 0.02 | 0.05 | 0.05 | 92 | 1012.6 |
| 20260507001108 | 63 | 116 | 4.3 | 9.6 | 0.02 | 0.05 | 0.05 | 92 | 1012.5 |
| 20260507001008 | 63 | 171 | 3.5 | 7.8 | 0.02 | 0.05 | 0.05 | 92 | 1012.5 |
| 20260507000909 | 63 | 121 | 3.5 | 7.8 | 0.02 | 0.05 | 0.05 | 92 | 1012.8 |
| 20260507000804 | 63 | 156 | 3.5 | 7.8 | 0.02 | 0.05 | 0.05 | 92 | 1012.6 |
| 20260507000702 | 64 | 165 | 2.6 | 7.8 | 0.02 | 0.05 | 0.05 | 92 | 1012.8 |
| 20260507000602 | 64 | 139 | 2.6 | 7.0 | 0.02 | 0.05 | 0.05 | 92 | 1012.8 |
| 20260507000503 | 64 | 127 | 2.6 | 7.0 | 0.02 | 0.05 | 0.05 | 92 | 1012.8 |
| 20260507000405 | 63 | 156 | 2.6 | 6.1 | 0.02 | 0.05 | 0.05 | 92 | 1012.8 |
| 20260507000253 | 63 | 207 | 2.6 | 7.0 | 0.02 | 0.05 | 0.05 | 92 | 1012.8 |
| 20260507000153 | 63 | 167 | 3.5 | 7.0 | 0.01 | 0.04 | 0.05 | 92 | 1012.8 |
| 20260507000053 | 63 | 169 | 3.5 | 7.0 | 0.01 | 0.04 | 0.04 | 92 | 1012.8 |
| 20260506235952 | 63 | 168 | 3.5 | 7.0 | 0.01 | 0.04 | 0.04 | 92 | 1012.8 |
| 20260506235853 | 63 | 157 | 3.5 | 7.0 | 0.01 | 0.04 | 0.04 | 92 | 1012.8 |
| 20260506235749 | 63 | 167 | 3.5 | 7.0 | 0.01 | 0.04 | 0.04 | 92 | 1012.7 |
| 20260506235648 | 64 | 119 | 3.5 | 7.8 | 0.01 | 0.04 | 0.04 | 92 | 1012.6 |
| 20260506235549 | 63 | 186 | 3.5 | 7.8 | 0.01 | 0.04 | 0.04 | 92 | 1012.7 |
| 20260506235449 | 63 | 168 | 3.5 | 7.8 | 0.01 | 0.04 | 0.04 | 92 | 1012.7 |
| 20260506235346 | 64 | 159 | 3.5 | 7.8 | 0.01 | 0.04 | 0.04 | 92 | 1012.6 |
| 20260506235241 | 64 | 158 | 3.5 | 7.8 | 0.01 | 0.04 | 0.04 | 92 | 1012.5 |
| 20260506235140 | 64 | 167 | 3.5 | 7.8 | 0.01 | 0.04 | 0.04 | 91 | 1012.4 |
| 20260506235041 | 64 | 147 | 3.5 | 7.8 | 0.01 | 0.04 | 0.04 | 91 | 1012.4 |
| 20260506234941 | 64 | 145 | 3.5 | 7.8 | 0.01 | 0.04 | 0.04 | 91 | 1012.5 |
| 20260506234840 | 64 | 172 | 3.5 | 7.8 | 0.01 | 0.04 | 0.04 | 91 | 1012.5 |
| 20260506234733 | 64 | 141 | 3.5 | 7.8 | 0.01 | 0.04 | 0.04 | 91 | 1012.4 |
| 20260506234631 | 64 | 153 | 2.6 | 7.0 | 0.01 | 0.04 | 0.04 | 91 | 1012.5 |
| 20260506234530 | 64 | 167 | 2.6 | 6.1 | 0.01 | 0.04 | 0.04 | 91 | 1012.5 |
| 20260506234431 | 64 | 183 | 2.6 | 6.1 | 0.01 | 0.04 | 0.04 | 91 | 1012.5 |
| 20260506234331 | 64 | 163 | 3.5 | 9.6 | 0.01 | 0.04 | 0.04 | 91 | 1012.2 |
| 20260506234227 | 64 | 152 | 3.5 | 9.6 | 0.01 | 0.04 | 0.04 | 91 | 1012.3 |
| 20260506234124 | 64 | 158 | 3.5 | 9.6 | 0.01 | 0.04 | 0.04 | 91 | 1012.3 |
| 20260506234024 | 64 | 163 | 3.5 | 9.6 | 0.00 | 0.03 | 0.04 | 91 | 1012.3 |
| 20260506233925 | 64 | 165 | 3.5 | 9.6 | 0.00 | 0.03 | 0.03 | 91 | 1012.2 |
| 20260506233824 | 64 | 152 | 4.3 | 9.6 | 0.00 | 0.03 | 0.03 | 91 | 1012.2 |
| 20260506233720 | 64 | 185 | 4.3 | 9.6 | 0.00 | 0.03 | 0.03 | 91 | 1011.8 |
| 20260506233618 | 64 | 150 | 4.3 | 9.6 | 0.00 | 0.03 | 0.03 | 90 | 1011.7 |
| 20260506233519 | 64 | 142 | 4.3 | 9.6 | 0.00 | 0.03 | 0.03 | 90 | 1011.5 |
| 20260506233419 | 64 | 150 | 4.3 | 9.6 | 0.00 | 0.03 | 0.03 | 90 | 1011.6 |
| 20260506233318 | 64 | 146 | 4.3 | 7.8 | 0.00 | 0.03 | 0.03 | 90 | 1011.8 |
| 20260506233211 | 64 | 153 | 4.3 | 7.8 | 0.00 | 0.03 | 0.03 | 90 | 1011.8 |
| 20260506233108 | 64 | 140 | 3.5 | 7.8 | 0.00 | 0.03 | 0.03 | 90 | 1012.0 |
| 20260506233009 | 64 | 169 | 4.3 | 7.8 | 0.00 | 0.03 | 0.03 | 90 | 1011.8 |
| 20260506232908 | 64 | 157 | 3.5 | 7.8 | 0.00 | 0.03 | 0.03 | 90 | 1011.7 |
| 20260506232809 | 64 | 155 | 4.3 | 7.8 | 0.00 | 0.03 | 0.03 | 90 | 1012.0 |
| 20260506232702 | 64 | 163 | 4.3 | 7.8 | 0.00 | 0.03 | 0.03 | 90 | 1012.0 |
| 20260506232603 | 64 | 163 | 4.3 | 7.8 | 0.00 | 0.03 | 0.03 | 90 | 1012.0 |
| 20260506232504 | 64 | 150 | 4.3 | 8.7 | 0.00 | 0.03 | 0.03 | 90 | 1012.0 |
| 20260506232403 | 64 | 135 | 4.3 | 8.7 | 0.00 | 0.03 | 0.03 | 90 | 1012.1 |
| 20260506232306 | 64 | 155 | 4.3 | 8.7 | 0.00 | 0.03 | 0.03 | 90 | 1012.1 |
| 20260506232157 | 64 | 171 | 4.3 | 9.6 | 0.00 | 0.03 | 0.03 | 90 | 1012.2 |
| 20260506232056 | 64 | 159 | 3.5 | 9.6 | 0.00 | 0.03 | 0.03 | 90 | 1012.1 |
| 20260506231958 | 64 | 156 | 4.3 | 9.6 | 0.00 | 0.03 | 0.03 | 90 | 1012.1 |
| 20260506231856 | 64 | 154 | 3.5 | 9.6 | 0.00 | 0.03 | 0.03 | 90 | 1012.1 |
| 20260506231757 | 64 | 141 | 3.5 | 9.6 | 0.00 | 0.03 | 0.03 | 90 | 1012.1 |
| 20260506231648 | 64 | 148 | 3.5 | 9.6 | 0.00 | 0.03 | 0.03 | 90 | 1012.1 |
| 20260506231549 | 64 | 182 | 3.5 | 10.4 | 0.00 | 0.03 | 0.03 | 90 | 1012.2 |
| 20260506231449 | 64 | 167 | 3.5 | 10.4 | 0.00 | 0.03 | 0.03 | 90 | 1012.2 |
| 20260506231349 | 64 | 186 | 3.5 | 10.4 | 0.00 | 0.03 | 0.03 | 90 | 1012.3 |
| 20260506231246 | 65 | 151 | 3.5 | 10.4 | 0.00 | 0.03 | 0.03 | 90 | 1012.3 |
| 20260506231143 | 65 | 170 | 3.5 | 10.4 | 0.00 | 0.03 | 0.03 | 89 | 1012.2 |
| 20260506230941 | 65 | 180 | 3.5 | 10.4 | 0.00 | 0.03 | 0.03 | 89 | 1012.2 |
| 20260506230842 | 65 | 175 | 3.5 | 10.4 | 0.00 | 0.03 | 0.03 | 89 | 1012.2 |
| 20260506230741 | 65 | 169 | 3.5 | 10.4 | 0.00 | 0.03 | 0.03 | 89 | 1012.2 |
| 20260506230641 | 65 | 107 | 3.5 | 10.4 | 0.00 | 0.03 | 0.03 | 89 | 1012.2 |
| 20260506230539 | 65 | 184 | 3.5 | 7.0 | 0.00 | 0.03 | 0.03 | 89 | 1012.2 |
| 20260506230438 | 65 | 161 | 3.5 | 7.0 | 0.00 | 0.03 | 0.03 | 89 | 1012.1 |
| 20260506230336 | 65 | 150 | 3.5 | 7.0 | 0.00 | 0.03 | 0.03 | 89 | 1012.0 |
| 20260506230235 | 65 | 127 | 3.5 | 7.0 | 0.00 | 0.03 | 0.03 | 89 | 1012.1 |
| 20260506230128 | 65 | 181 | 3.5 | 7.0 | 0.00 | 0.03 | 0.03 | 89 | 1012.1 |
| 20260506230026 | 65 | 136 | 3.5 | 7.0 | 0.00 | 0.03 | 0.03 | 89 | 1012.1 |
| 20260506225927 | 65 | 151 | 3.5 | 7.0 | 0.00 | 0.03 | 0.03 | 89 | 1012.1 |
| 20260506225826 | 65 | 148 | 2.6 | 7.0 | 0.00 | 0.03 | 0.03 | 89 | 1012.2 |
| 20260506225725 | 65 | 187 | 2.6 | 7.0 | 0.00 | 0.03 | 0.03 | 89 | 1012.1 |
| 20260506225621 | 65 | 137 | 2.6 | 6.1 | 0.00 | 0.03 | 0.03 | 89 | 1012.2 |
| 20260506225520 | 65 | 164 | 2.6 | 6.1 | 0.00 | 0.03 | 0.03 | 89 | 1012.0 |
| 20260506225420 | 65 | 161 | 1.7 | 6.1 | 0.00 | 0.03 | 0.03 | 88 | 1012.0 |
| 20260506225318 | 65 | 148 | 1.7 | 6.1 | 0.00 | 0.03 | 0.03 | 88 | 1012.0 |
| 20260506225219 | 65 | 152 | 1.7 | 5.2 | 0.00 | 0.03 | 0.03 | 88 | 1012.1 |
| 20260506225118 | 65 | 154 | 1.7 | 5.2 | 0.00 | 0.03 | 0.03 | 88 | 1012.2 |
| 20260506225018 | 65 | 153 | 1.7 | 5.2 | 0.00 | 0.03 | 0.03 | 88 | 1012.3 |
| 20260506224914 | 65 | 124 | 1.7 | 4.3 | 0.00 | 0.03 | 0.03 | 88 | 1012.2 |
| 20260506224814 | 65 | 104 | 0.9 | 4.3 | 0.00 | 0.03 | 0.03 | 88 | 1012.4 |
| 20260506224713 | 65 | 128 | 0.9 | 4.3 | 0.00 | 0.03 | 0.03 | 88 | 1012.4 |
| 20260506224602 | 65 | 96 | 1.7 | 4.3 | 0.00 | 0.03 | 0.03 | 88 | 1012.4 |
| 20260506224504 | 65 | 96 | 1.7 | 5.2 | 0.00 | 0.03 | 0.03 | 88 | 1012.3 |
| 20260506224403 | 65 | 214 | 0.9 | 5.2 | 0.00 | 0.03 | 0.03 | 88 | 1012.3 |
| 20260506224303 | 65 | 204 | 1.7 | 5.2 | 0.00 | 0.03 | 0.03 | 88 | 1012.3 |
| 20260506224203 | 65 | 176 | 1.7 | 5.2 | 0.00 | 0.03 | 0.03 | 88 | 1012.4 |
| 20260506224100 | 65 | 176 | 1.7 | 5.2 | 0.00 | 0.03 | 0.03 | 88 | 1012.4 |
| 20260506224001 | 65 | 177 | 1.7 | 5.2 | 0.00 | 0.03 | 0.03 | 88 | 1012.3 |
| 20260506223859 | 65 | 178 | 1.7 | 5.2 | 0.00 | 0.03 | 0.03 | 88 | 1012.5 |
| 20260506223759 | 65 | 178 | 1.7 | 5.2 | 0.00 | 0.03 | 0.03 | 88 | 1012.5 |
| 20260506223657 | 65 | 178 | 1.7 | 5.2 | 0.00 | 0.03 | 0.03 | 88 | 1012.5 |
| 20260506223552 | 65 | 178 | 0.9 | 5.2 | 0.00 | 0.03 | 0.03 | 88 | 1012.5 |
| 20260506223450 | 65 | 174 | 0.9 | 4.3 | 0.00 | 0.03 | 0.03 | 87 | 1012.4 |
| 20260506223351 | 65 | 174 | 0.9 | 4.3 | 0.00 | 0.03 | 0.03 | 87 | 1012.5 |
| 20260506223251 | 65 | 175 | 0.9 | 4.3 | 0.00 | 0.03 | 0.03 | 87 | 1012.6 |
| 20260506223150 | 65 | 159 | 0.9 | 4.3 | 0.00 | 0.03 | 0.03 | 87 | 1012.7 |
| 20260506223040 | 65 | 159 | 0.9 | 4.3 | 0.00 | 0.03 | 0.03 | 87 | 1012.8 |
| 20260506222942 | 66 | 156 | 0.9 | 3.5 | 0.00 | 0.03 | 0.03 | 87 | 1012.8 |
| 20260506222841 | 66 | 165 | 0.9 | 3.5 | 0.00 | 0.03 | 0.03 | 87 | 1012.9 |
| 20260506222739 | 66 | 165 | 0.9 | 3.5 | 0.00 | 0.03 | 0.03 | 87 | 1012.9 |
| 20260506222640 | 66 | 167 | 0.9 | 3.5 | 0.00 | 0.03 | 0.03 | 87 | 1013.0 |
| 20260506222536 | 66 | 88 | 0.9 | 2.6 | 0.00 | 0.03 | 0.03 | 87 | 1013.0 |
| 20260506222437 | 66 | 88 | 0.9 | 3.5 | 0.00 | 0.03 | 0.03 | 87 | 1013.0 |
| 20260506222338 | 66 | 86 | 0.9 | 3.5 | 0.00 | 0.03 | 0.03 | 87 | 1012.9 |
| 20260506222237 | 66 | 96 | 0.9 | 3.5 | 0.00 | 0.03 | 0.03 | 87 | 1012.9 |
| 20260506222134 | 66 | 132 | 0.9 | 3.5 | 0.00 | 0.03 | 0.03 | 87 | 1012.8 |
| 20260506222035 | 66 | 132 | 0.9 | 4.3 | 0.00 | 0.03 | 0.03 | 87 | 1012.8 |
| 20260506221932 | 66 | 113 | 0.9 | 4.3 | 0.00 | 0.03 | 0.03 | 87 | 1012.8 |
| 20260506221832 | 66 | 75 | 0.9 | 4.3 | 0.00 | 0.03 | 0.03 | 87 | 1013.0 |
| 20260506221731 | 66 | 225 | 0.9 | 4.3 | 0.00 | 0.03 | 0.03 | 87 | 1012.9 |
| 20260506221629 | 66 | 254 | 1.7 | 4.3 | 0.00 | 0.03 | 0.03 | 86 | 1012.9 |
| 20260506221520 | 66 | 253 | 1.7 | 4.3 | 0.00 | 0.03 | 0.03 | 86 | 1012.9 |
| 20260506221419 | 66 | 198 | 1.7 | 4.3 | 0.00 | 0.03 | 0.03 | 86 | 1012.9 |
| 20260506221319 | 66 | 176 | 1.7 | 4.3 | 0.00 | 0.03 | 0.03 | 86 | 1013.0 |
| 20260506221217 | 66 | 177 | 1.7 | 4.3 | 0.00 | 0.03 | 0.03 | 86 | 1013.0 |
| 20260506221119 | 66 | 180 | 1.7 | 4.3 | 0.00 | 0.03 | 0.03 | 86 | 1013.0 |
| 20260506221014 | 66 | 203 | 1.7 | 4.3 | 0.00 | 0.03 | 0.03 | 86 | 1012.9 |
| 20260506220914 | 66 | 203 | 1.7 | 4.3 | 0.00 | 0.03 | 0.03 | 86 | 1013.0 |
| 20260506220814 | 66 | 180 | 1.7 | 4.3 | 0.00 | 0.03 | 0.03 | 86 | 1013.1 |
| 20260506220714 | 66 | 175 | 0.9 | 4.3 | 0.00 | 0.03 | 0.03 | 86 | 1013.1 |
| 20260506220613 | 66 | 145 | 0.9 | 4.3 | 0.00 | 0.03 | 0.03 | 86 | 1013.2 |
| 20260506220509 | 66 | 181 | 0.9 | 4.3 | 0.00 | 0.03 | 0.03 | 86 | 1013.1 |
| 20260506220406 | 66 | 132 | 0.9 | 3.5 | 0.00 | 0.03 | 0.03 | 86 | 1013.1 |
| 20260506220306 | 66 | 53 | 0.0 | 3.5 | 0.00 | 0.03 | 0.03 | 86 | 1013.2 |
| 20260506220208 | 66 | 153 | 0.0 | 2.6 | 0.00 | 0.03 | 0.03 | 86 | 1013.1 |
| 20260506220105 | 66 | 282 | 0.9 | 3.5 | 0.00 | 0.03 | 0.03 | 86 | 1013.0 |
| 20260506215957 | 66 | 349 | 0.9 | 7.0 | 0.00 | 0.03 | 0.03 | 86 | 1013.0 |
| 20260506215856 | 66 | 355 | 0.9 | 7.0 | 0.00 | 0.03 | 0.03 | 86 | 1013.0 |
| 20260506215756 | 66 | 157 | 0.9 | 7.0 | 0.00 | 0.03 | 0.03 | 86 | 1013.0 |
| 20260506215657 | 66 | 181 | 0.9 | 7.0 | 0.00 | 0.03 | 0.03 | 86 | 1012.9 |
| 20260506215555 | 67 | 136 | 1.7 | 7.0 | 0.00 | 0.03 | 0.03 | 86 | 1013.0 |
| 20260506215451 | 67 | 136 | 1.7 | 7.0 | 0.00 | 0.03 | 0.03 | 86 | 1012.8 |
| 20260506215348 | 67 | 140 | 1.7 | 7.0 | 0.00 | 0.03 | 0.03 | 86 | 1012.9 |
| 20260506215249 | 67 | 142 | 1.7 | 7.0 | 0.00 | 0.03 | 0.03 | 85 | 1012.8 |
| 20260506215148 | 67 | 143 | 2.6 | 7.0 | 0.00 | 0.03 | 0.03 | 85 | 1012.9 |
| 20260506215049 | 67 | 186 | 1.7 | 6.1 | 0.00 | 0.03 | 0.03 | 85 | 1012.9 |
| 20260506214949 | 67 | 182 | 1.7 | 6.1 | 0.00 | 0.03 | 0.03 | 85 | 1012.9 |
| 20260506214847 | 67 | 178 | 1.7 | 6.1 | 0.00 | 0.03 | 0.03 | 85 | 1012.9 |
| 20260506214746 | 67 | 65 | 1.7 | 6.1 | 0.00 | 0.03 | 0.03 | 85 | 1013.0 |
| 20260506214645 | 67 | 168 | 1.7 | 6.1 | 0.00 | 0.03 | 0.03 | 85 | 1013.1 |
| 20260506214542 | 67 | 184 | 1.7 | 6.1 | 0.00 | 0.03 | 0.03 | 85 | 1013.0 |
| 20260506214433 | 67 | 135 | 1.7 | 6.1 | 0.00 | 0.03 | 0.03 | 85 | 1013.0 |
| 20260506214332 | 67 | 194 | 0.9 | 5.2 | 0.00 | 0.03 | 0.03 | 85 | 1013.2 |
| 20260506214233 | 67 | 234 | 0.9 | 5.2 | 0.00 | 0.03 | 0.03 | 85 | 1013.1 |
| 20260506214132 | 67 | 159 | 0.9 | 5.2 | 0.00 | 0.03 | 0.03 | 85 | 1013.1 |
| 20260506214032 | 67 | 175 | 0.9 | 3.5 | 0.00 | 0.03 | 0.03 | 85 | 1013.2 |
| 20260506213933 | 67 | 274 | 0.9 | 3.5 | 0.00 | 0.03 | 0.03 | 85 | 1013.1 |
| 20260506213830 | 67 | 265 | 0.9 | 6.1 | 0.00 | 0.03 | 0.03 | 85 | 1013.1 |
| 20260506213729 | 67 | 138 | 0.9 | 6.1 | 0.00 | 0.03 | 0.03 | 85 | 1013.1 |
| 20260506213629 | 67 | 138 | 1.7 | 6.1 | 0.00 | 0.03 | 0.03 | 85 | 1013.0 |
| 20260506213526 | 67 | 138 | 1.7 | 6.1 | 0.00 | 0.03 | 0.03 | 85 | 1012.9 |
| 20260506213424 | 67 | 138 | 1.7 | 6.1 | 0.00 | 0.03 | 0.03 | 85 | 1012.9 |
| 20260506213324 | 67 | 139 | 1.7 | 7.0 | 0.00 | 0.03 | 0.03 | 85 | 1012.9 |
| 20260506213222 | 67 | 139 | 1.7 | 7.0 | 0.00 | 0.03 | 0.03 | 85 | 1012.7 |
| 20260506213123 | 67 | 139 | 1.7 | 7.0 | 0.00 | 0.03 | 0.03 | 85 | 1012.8 |
| 20260506213020 | 67 | 191 | 1.7 | 7.0 | 0.00 | 0.03 | 0.03 | 85 | 1012.8 |
| 20260506212914 | 67 | 165 | 1.7 | 7.0 | 0.00 | 0.03 | 0.03 | 85 | 1012.7 |
| 20260506212814 | 67 | 140 | 1.7 | 7.0 | 0.00 | 0.03 | 0.03 | 85 | 1012.6 |
| 20260506212714 | 67 | 250 | 1.7 | 7.0 | 0.00 | 0.03 | 0.03 | 85 | 1012.7 |
| 20260506212613 | 67 | 256 | 2.6 | 7.0 | 0.00 | 0.03 | 0.03 | 85 | 1012.8 |
| 20260506212511 | 67 | 256 | 2.6 | 7.8 | 0.00 | 0.03 | 0.03 | 85 | 1012.7 |
| 20260506212404 | 67 | 249 | 2.6 | 7.8 | 0.00 | 0.03 | 0.03 | 85 | 1012.7 |
| 20260506212306 | 67 | 121 | 2.6 | 7.8 | 0.00 | 0.03 | 0.03 | 85 | 1012.6 |
| 20260506212205 | 67 | 205 | 2.6 | 7.8 | 0.00 | 0.03 | 0.03 | 85 | 1012.6 |
| 20260506212104 | 67 | 171 | 2.6 | 7.8 | 0.00 | 0.03 | 0.03 | 85 | 1012.6 |
| 20260506212005 | 67 | 175 | 2.6 | 7.8 | 0.00 | 0.03 | 0.03 | 85 | 1012.6 |
| 20260506211859 | 67 | 175 | 2.6 | 7.8 | 0.00 | 0.03 | 0.03 | 85 | 1012.6 |
| 20260506211758 | 67 | 178 | 2.6 | 7.8 | 0.00 | 0.03 | 0.03 | 85 | 1012.6 |
| 20260506211659 | 67 | 121 | 2.6 | 7.8 | 0.00 | 0.03 | 0.03 | 85 | 1012.5 |
| 20260506211558 | 67 | 169 | 2.6 | 7.8 | 0.00 | 0.03 | 0.03 | 86 | 1012.5 |
| 20260506211459 | 67 | 148 | 2.6 | 7.0 | 0.00 | 0.03 | 0.03 | 86 | 1012.5 |
| 20260506211349 | 67 | 126 | 2.6 | 7.8 | 0.00 | 0.03 | 0.03 | 86 | 1012.4 |
| 20260506211249 | 67 | 186 | 2.6 | 7.8 | 0.00 | 0.03 | 0.03 | 86 | 1012.4 |
| 20260506211148 | 67 | 186 | 2.6 | 7.8 | 0.00 | 0.03 | 0.03 | 86 | 1012.4 |
| 20260506211048 | 67 | 141 | 3.5 | 9.6 | 0.00 | 0.03 | 0.03 | 86 | 1012.4 |
| 20260506210949 | 67 | 173 | 3.5 | 10.4 | 0.00 | 0.03 | 0.03 | 86 | 1012.3 |
| 20260506210842 | 67 | 173 | 4.3 | 10.4 | 0.00 | 0.03 | 0.03 | 86 | 1012.3 |
| 20260506210742 | 67 | 176 | 4.3 | 10.4 | 0.00 | 0.03 | 0.03 | 85 | 1012.3 |
| 20260506210643 | 67 | 202 | 4.3 | 10.4 | 0.00 | 0.03 | 0.03 | 85 | 1012.2 |
| 20260506210542 | 67 | 156 | 4.3 | 10.4 | 0.00 | 0.03 | 0.03 | 85 | 1012.0 |
| 20260506210442 | 67 | 129 | 4.3 | 10.4 | 0.00 | 0.03 | 0.03 | 85 | 1012.0 |
| 20260506210339 | 67 | 117 | 3.5 | 10.4 | 0.00 | 0.03 | 0.03 | 85 | 1012.0 |
| 20260506210236 | 67 | 190 | 3.5 | 10.4 | 0.00 | 0.03 | 0.03 | 85 | 1012.0 |
| 20260506210137 | 67 | 155 | 3.5 | 10.4 | 0.00 | 0.03 | 0.03 | 85 | 1012.2 |
| 20260506210036 | 67 | 139 | 2.6 | 10.4 | 0.00 | 0.03 | 0.03 | 85 | 1012.2 |
| 20260506205938 | 67 | 190 | 1.7 | 7.0 | 0.00 | 0.03 | 0.03 | 85 | 1012.1 |
| 20260506205827 | 67 | 184 | 1.7 | 7.0 | 0.00 | 0.03 | 0.03 | 85 | 1012.2 |
| 20260506205725 | 67 | 246 | 0.9 | 7.0 | 0.00 | 0.03 | 0.03 | 85 | 1011.8 |
| 20260506205626 | 67 | 180 | 0.9 | 6.1 | 0.00 | 0.03 | 0.03 | 85 | 1011.8 |
| 20260506205528 | 67 | 151 | 0.0 | 6.1 | 0.00 | 0.03 | 0.03 | 85 | 1011.7 |
| 20260506205426 | 67 | 128 | 0.0 | 0.9 | 0.00 | 0.03 | 0.03 | 85 | 1011.7 |
| 20260506205320 | 68 | 199 | 0.0 | 0.0 | 0.00 | 0.03 | 0.03 | 84 | 1011.7 |
| 20260506205221 | 68 | 165 | 0.0 | 0.0 | 0.00 | 0.03 | 0.03 | 84 | 1011.7 |
| 20260506205121 | 68 | 168 | 0.0 | 0.0 | 0.00 | 0.03 | 0.03 | 84 | 1011.6 |
| 20260506205021 | 68 | 138 | 0.0 | 0.0 | 0.00 | 0.03 | 0.03 | 84 | 1011.6 |
| 20260506204921 | 68 | 132 | 0.0 | 0.0 | 0.00 | 0.03 | 0.03 | 84 | 1011.7 |
| 20260506204815 | 68 | 190 | 0.0 | 0.0 | 0.00 | 0.03 | 0.03 | 84 | 1011.7 |
| 20260506204714 | 68 | 188 | 0.0 | 0.0 | 0.00 | 0.03 | 0.03 | 84 | 1011.5 |
| 20260506204615 | 68 | 164 | 0.0 | 0.0 | 0.00 | 0.03 | 0.03 | 84 | 1011.5 |
| 20260506204514 | 68 | 201 | 0.0 | 0.0 | 0.00 | 0.03 | 0.03 | 84 | 1011.4 |
| 20260506204415 | 68 | 114 | 0.0 | 0.0 | 0.00 | 0.03 | 0.03 | 84 | 1011.6 |
| 20260506204304 | 68 | 165 | 0.0 | 0.0 | 0.00 | 0.03 | 0.03 | 84 | 1011.6 |
| 20260506204205 | 68 | 171 | 0.0 | 0.0 | 0.00 | 0.03 | 0.03 | 84 | 1012.0 |
| 20260506204105 | 68 | 161 | 0.0 | 0.0 | 0.00 | 0.03 | 0.03 | 84 | 1011.8 |
| 20260506204003 | 68 | 165 | 0.0 | 0.0 | 0.00 | 0.03 | 0.03 | 84 | 1011.8 |
| 20260506203904 | 68 | 186 | 0.0 | 0.0 | 0.00 | 0.03 | 0.03 | 85 | 1012.1 |
| 20260506203801 | 68 | 233 | 0.0 | 0.0 | 0.00 | 0.03 | 0.03 | 84 | 1012.1 |
| 20260506203658 | 68 | 186 | 0.0 | 0.0 | 0.00 | 0.03 | 0.03 | 84 | 1012.0 |
| 20260506203559 | 68 | 178 | 0.0 | 0.0 | 0.00 | 0.03 | 0.03 | 84 | 1012.0 |
| 20260506203457 | 68 | 195 | 0.0 | 0.0 | 0.00 | 0.03 | 0.03 | 84 | 1012.1 |
| 20260506203359 | 68 | 146 | 0.0 | 0.0 | 0.00 | 0.03 | 0.03 | 84 | 1012.0 |
| 20260506203252 | 68 | 139 | 0.0 | 0.0 | 0.00 | 0.03 | 0.03 | 84 | 1012.1 |
| 20260506203153 | 68 | 161 | 0.0 | 0.0 | 0.00 | 0.03 | 0.03 | 84 | 1012.1 |
| 20260506203053 | 68 | 155 | 0.0 | 0.0 | 0.00 | 0.03 | 0.03 | 84 | 1012.1 |
| 20260506202952 | 68 | 111 | 0.0 | 0.0 | 0.00 | 0.03 | 0.03 | 84 | 1012.2 |
| 20260506202853 | 68 | 132 | 0.0 | 0.0 | 0.00 | 0.03 | 0.03 | 84 | 1012.3 |
| 20260506202743 | 68 | 245 | 0.0 | 0.0 | 0.00 | 0.03 | 0.03 | 84 | 1012.2 |
| 20260506202642 | 68 | 145 | 0.0 | 0.0 | 0.00 | 0.03 | 0.03 | 84 | 1012.3 |
| 20260506202543 | 68 | 165 | 0.0 | 0.0 | 0.00 | 0.03 | 0.03 | 84 | 1012.4 |
| 20260506202442 | 68 | 142 | 0.0 | 0.0 | 0.00 | 0.03 | 0.03 | 84 | 1012.6 |
| 20260506202343 | 68 | 167 | 0.0 | 0.0 | 0.00 | 0.03 | 0.03 | 84 | 1012.6 |
| 20260506202238 | 68 | 180 | 0.0 | 0.0 | 0.00 | 0.03 | 0.03 | 85 | 1012.6 |
| 20260506202137 | 68 | 215 | 0.0 | 0.0 | 0.00 | 0.03 | 0.03 | 85 | 1012.7 |
| 20260506202035 | 68 | 197 | 0.0 | 0.0 | 0.00 | 0.03 | 0.03 | 85 | 1012.7 |
| 20260506201936 | 68 | 159 | 0.0 | 0.0 | 0.00 | 0.03 | 0.03 | 85 | 1012.7 |
| 20260506201837 | 68 | 192 | 0.0 | 0.0 | 0.00 | 0.03 | 0.03 | 85 | 1012.7 |
| 20260506201730 | 67 | 183 | 0.0 | 0.0 | 0.00 | 0.03 | 0.03 | 85 | 1012.8 |
| 20260506201630 | 67 | 115 | 0.0 | 0.0 | 0.00 | 0.03 | 0.03 | 84 | 1012.8 |
| 20260506201531 | 67 | 179 | 0.0 | 0.0 | 0.00 | 0.03 | 0.03 | 85 | 1012.7 |
| 20260506201430 | 67 | 106 | 0.0 | 0.0 | 0.00 | 0.03 | 0.03 | 85 | 1012.7 |
| 20260506201331 | 67 | 169 | 0.0 | 0.0 | 0.00 | 0.03 | 0.03 | 85 | 1012.7 |
| 20260506201222 | 67 | 168 | 0.0 | 0.0 | 0.00 | 0.03 | 0.03 | 85 | 1012.7 |
| 20260506201121 | 67 | 99 | 0.0 | 0.0 | 0.00 | 0.03 | 0.03 | 85 | 1012.6 |
| 20260506201021 | 67 | 135 | 0.0 | 0.0 | 0.00 | 0.03 | 0.03 | 85 | 1012.6 |
| 20260506200920 | 67 | 189 | 0.0 | 0.0 | 0.00 | 0.03 | 0.03 | 85 | 1012.6 |
| 20260506200821 | 67 | 136 | 0.0 | 0.0 | 0.00 | 0.03 | 0.03 | 85 | 1012.5 |
| 20260506200717 | 67 | 170 | 0.0 | 0.0 | 0.00 | 0.03 | 0.03 | 86 | 1012.6 |
| 20260506200615 | 67 | 178 | 0.0 | 0.0 | 0.00 | 0.03 | 0.03 | 86 | 1012.6 |
| 20260506200513 | 67 | 229 | 0.0 | 0.0 | 0.00 | 0.03 | 0.03 | 86 | 1012.6 |
| 20260506200414 | 67 | 182 | 0.0 | 0.0 | 0.00 | 0.03 | 0.03 | 86 | 1012.7 |
| 20260506200315 | 67 | 171 | 0.0 | 0.0 | 0.00 | 0.03 | 0.03 | 85 | 1012.8 |
| 20260506200211 | 67 | 218 | 0.0 | 0.0 | 0.00 | 0.03 | 0.03 | 85 | 1012.7 |
| 20260506200109 | 67 | 248 | 0.0 | 0.0 | 0.00 | 0.03 | 0.03 | 86 | 1012.7 |
| 20260506200010 | 67 | 175 | 0.0 | 0.0 | 0.00 | 0.03 | 0.03 | 86 | 1012.7 |
| 20260506195907 | 67 | 164 | 0.0 | 0.0 | 0.00 | 0.03 | 0.03 | 86 | 1012.7 |
| 20260506195808 | 67 | 203 | 0.0 | 0.0 | 0.00 | 0.03 | 0.03 | 86 | 1012.8 |
| 20260506195701 | 67 | 218 | 0.0 | 0.0 | 0.00 | 0.03 | 0.03 | 86 | 1012.7 |
| 20260506195558 | 67 | 207 | 0.0 | 0.0 | 0.00 | 0.03 | 0.03 | 85 | 1012.8 |
| 20260506195459 | 67 | 163 | 0.0 | 0.0 | 0.00 | 0.03 | 0.03 | 85 | 1012.8 |
| 20260506195358 | 67 | 271 | 0.0 | 0.0 | 0.00 | 0.03 | 0.03 | 85 | 1012.9 |
| 20260506195258 | 67 | 155 | 0.0 | 0.0 | 0.00 | 0.03 | 0.03 | 86 | 1013.0 |
| 20260506195152 | 67 | 151 | 0.0 | 0.0 | 0.00 | 0.03 | 0.03 | 86 | 1013.1 |
| 20260506195052 | 67 | 156 | 0.0 | 0.0 | 0.00 | 0.03 | 0.03 | 86 | 1013.1 |
| 20260506194953 | 67 | 57 | 0.0 | 0.0 | 0.00 | 0.03 | 0.03 | 86 | 1013.2 |
| 20260506194852 | 67 | 178 | 0.0 | 0.0 | 0.00 | 0.03 | 0.03 | 86 | 1013.1 |
| 20260506194753 | 67 | 166 | 0.0 | 0.0 | 0.00 | 0.03 | 0.03 | 87 | 1013.1 |
| 20260506194649 | 67 | 149 | 0.0 | 0.0 | 0.00 | 0.03 | 0.03 | 86 | 1013.0 |
| 20260506194548 | 67 | 322 | 0.0 | 0.0 | 0.00 | 0.03 | 0.03 | 86 | 1013.0 |
| 20260506194447 | 67 | 130 | 0.0 | 0.0 | 0.00 | 0.03 | 0.03 | 87 | 1013.0 |
| 20260506194349 | 67 | 131 | 0.0 | 0.0 | 0.00 | 0.03 | 0.03 | 86 | 1012.9 |
| 20260506194246 | 67 | 194 | 0.0 | 0.0 | 0.00 | 0.03 | 0.03 | 87 | 1012.9 |
| 20260506194139 | 67 | 192 | 0.0 | 0.0 | 0.00 | 0.03 | 0.03 | 87 | 1012.9 |
| 20260506194036 | 67 | 150 | 0.0 | 0.0 | 0.00 | 0.03 | 0.03 | 87 | 1012.9 |
| 20260506193937 | 67 | 180 | 0.0 | 0.0 | 0.00 | 0.03 | 0.03 | 87 | 1013.0 |
| 20260506193836 | 67 | 142 | 0.0 | 0.0 | 0.00 | 0.03 | 0.03 | 87 | 1012.9 |
| 20260506193737 | 66 | 150 | 0.0 | 0.0 | 0.00 | 0.03 | 0.03 | 87 | 1012.9 |
| 20260506193634 | 67 | 166 | 0.0 | 0.0 | 0.00 | 0.03 | 0.03 | 87 | 1012.9 |
| 20260506193534 | 67 | 147 | 0.0 | 0.0 | 0.00 | 0.03 | 0.03 | 87 | 1012.8 |
| 20260506193436 | 66 | 146 | 0.0 | 0.0 | 0.00 | 0.03 | 0.03 | 87 | 1012.8 |
| 20260506193332 | 66 | 134 | 0.0 | 0.0 | 0.00 | 0.03 | 0.03 | 87 | 1012.8 |
| 20260506193230 | 66 | 180 | 0.0 | 0.0 | 0.00 | 0.03 | 0.03 | 87 | 1012.6 |
| 20260506193129 | 66 | 136 | 0.0 | 0.0 | 0.00 | 0.03 | 0.03 | 87 | 1012.7 |
| 20260506193029 | 66 | 178 | 0.0 | 0.0 | 0.00 | 0.03 | 0.03 | 86 | 1012.6 |
| 20260506192928 | 66 | 202 | 0.0 | 0.0 | 0.00 | 0.03 | 0.03 | 87 | 1012.6 |
| 20260506192826 | 66 | 137 | 0.0 | 0.0 | 0.00 | 0.03 | 0.03 | 86 | 1012.6 |
| 20260506192725 | 66 | 161 | 0.0 | 0.0 | 0.00 | 0.03 | 0.03 | 86 | 1012.6 |
| 20260506192615 | 66 | 165 | 0.0 | 0.0 | 0.00 | 0.03 | 0.03 | 86 | 1012.6 |
| 20260506192514 | 66 | 195 | 0.0 | 0.0 | 0.00 | 0.03 | 0.03 | 86 | 1012.7 |
| 20260506192414 | 66 | 123 | 0.0 | 0.0 | 0.00 | 0.03 | 0.03 | 86 | 1012.6 |
| 20260506192315 | 66 | 24 | 0.0 | 0.0 | 0.00 | 0.03 | 0.03 | 86 | 1012.5 |
| 20260506192215 | 66 | 155 | 0.0 | 0.0 | 0.00 | 0.03 | 0.03 | 86 | 1012.5 |
| 20260506192107 | 66 | 198 | 0.0 | 0.0 | 0.00 | 0.03 | 0.03 | 86 | 1012.5 |
| 20260506192008 | 66 | 150 | 0.0 | 0.0 | 0.00 | 0.03 | 0.03 | 87 | 1012.6 |
| 20260506191909 | 66 | 313 | 0.0 | 0.0 | 0.00 | 0.03 | 0.03 | 86 | 1012.6 |
| 20260506191809 | 66 | 149 | 0.0 | 0.0 | 0.00 | 0.03 | 0.03 | 86 | 1012.5 |
| 20260506191709 | 66 | 180 | 0.0 | 0.0 | 0.00 | 0.03 | 0.03 | 86 | 1012.4 |
| 20260506191603 | 66 | 144 | 0.0 | 0.0 | 0.00 | 0.03 | 0.03 | 86 | 1012.4 |
| 20260506191502 | 66 | 155 | 0.0 | 0.0 | 0.00 | 0.03 | 0.03 | 86 | 1012.4 |
| 20260506191402 | 66 | 127 | 0.0 | 0.0 | 0.00 | 0.03 | 0.03 | 86 | 1012.4 |
| 20260506191302 | 66 | 142 | 0.0 | 0.0 | 0.00 | 0.03 | 0.03 | 85 | 1012.5 |
| 20260506191202 | 66 | 178 | 0.0 | 0.0 | 0.00 | 0.03 | 0.03 | 85 | 1012.4 |
| 20260506191052 | 66 | 149 | 0.0 | 0.0 | 0.00 | 0.03 | 0.03 | 85 | 1012.5 |
| 20260506190953 | 66 | 90 | 0.0 | 0.0 | 0.00 | 0.03 | 0.03 | 86 | 1012.6 |
| 20260506190852 | 66 | 193 | 0.0 | 0.0 | 0.00 | 0.03 | 0.03 | 86 | 1012.7 |
| 20260506190752 | 66 | 173 | 0.0 | 0.0 | 0.00 | 0.03 | 0.03 | 86 | 1012.8 |
| 20260506190653 | 66 | 158 | 0.0 | 0.0 | 0.00 | 0.03 | 0.03 | 86 | 1012.8 |
| 20260506190549 | 66 | 101 | 0.0 | 0.0 | 0.00 | 0.03 | 0.03 | 86 | 1012.9 |
| 20260506190448 | 66 | 139 | 0.0 | 0.0 | 0.00 | 0.03 | 0.03 | 86 | 1012.9 |
| 20260506190347 | 66 | 184 | 0.0 | 0.0 | 0.00 | 0.03 | 0.03 | 87 | 1012.9 |
| 20260506190249 | 66 | 177 | 0.0 | 0.0 | 0.00 | 0.03 | 0.03 | 86 | 1012.9 |
| 20260506190146 | 66 | 221 | 0.0 | 0.0 | 0.00 | 0.03 | 0.03 | 87 | 1012.9 |
| 20260506190043 | 66 | 131 | 0.0 | 0.0 | 0.00 | 0.03 | 0.03 | 87 | 1012.9 |
| 20260506185939 | 66 | 196 | 0.0 | 0.0 | 0.00 | 0.03 | 0.03 | 87 | 1012.9 |
| 20260506185841 | 66 | 157 | 0.0 | 0.0 | 0.00 | 0.03 | 0.03 | 87 | 1012.9 |
| 20260506185741 | 66 | 120 | 0.0 | 0.0 | 0.00 | 0.03 | 0.03 | 87 | 1012.8 |
| 20260506185641 | 66 | 144 | 0.0 | 0.0 | 0.00 | 0.03 | 0.03 | 87 | 1012.6 |
| 20260506185531 | 66 | 166 | 0.0 | 0.0 | 0.00 | 0.03 | 0.03 | 87 | 1012.7 |
| 20260506185430 | 66 | 133 | 0.0 | 0.0 | 0.00 | 0.03 | 0.03 | 87 | 1012.7 |
| 20260506185331 | 66 | 170 | 0.0 | 0.0 | 0.00 | 0.03 | 0.03 | 87 | 1012.7 |
| 20260506185229 | 66 | 146 | 0.0 | 0.0 | 0.00 | 0.03 | 0.03 | 88 | 1012.6 |
| 20260506185131 | 65 | 150 | 0.0 | 0.0 | 0.00 | 0.03 | 0.03 | 88 | 1012.6 |
| 20260506185027 | 65 | 138 | 0.0 | 0.0 | 0.00 | 0.03 | 0.03 | 88 | 1012.6 |
| 20260506184925 | 65 | 171 | 0.0 | 0.0 | 0.00 | 0.03 | 0.03 | 88 | 1012.6 |
| 20260506184824 | 65 | 171 | 0.0 | 0.0 | 0.00 | 0.03 | 0.03 | 87 | 1012.6 |
| 20260506184723 | 65 | 157 | 0.0 | 0.0 | 0.00 | 0.03 | 0.03 | 87 | 1012.6 |
| 20260506184625 | 65 | 158 | 0.0 | 0.9 | 0.00 | 0.03 | 0.03 | 88 | 1012.6 |
| 20260506184519 | 65 | 175 | 0.0 | 0.9 | 0.00 | 0.03 | 0.03 | 88 | 1012.5 |
| 20260506184418 | 65 | 146 | 0.0 | 4.3 | 0.00 | 0.03 | 0.03 | 87 | 1012.5 |
| 20260506184318 | 65 | 192 | 0.0 | 4.3 | 0.00 | 0.03 | 0.03 | 88 | 1012.5 |
| 20260506184217 | 65 | 178 | 0.0 | 4.3 | 0.00 | 0.03 | 0.03 | 88 | 1012.6 |
| 20260506184119 | 65 | 164 | 0.0 | 4.3 | 0.00 | 0.03 | 0.03 | 88 | 1012.4 |
| 20260506184008 | 65 | 131 | 0.0 | 4.3 | 0.00 | 0.03 | 0.03 | 88 | 1012.4 |
| 20260506183908 | 65 | 148 | 0.0 | 4.3 | 0.00 | 0.03 | 0.03 | 88 | 1012.5 |
| 20260506183809 | 65 | 138 | 0.0 | 4.3 | 0.00 | 0.03 | 0.03 | 88 | 1012.5 |
| 20260506183709 | 65 | 210 | 0.0 | 4.3 | 0.00 | 0.03 | 0.03 | 89 | 1012.5 |
| 20260506183608 | 65 | 111 | 0.0 | 4.3 | 0.00 | 0.03 | 0.03 | 89 | 1012.5 |
| 20260506183503 | 65 | 180 | 0.0 | 4.3 | 0.00 | 0.03 | 0.03 | 88 | 1012.5 |
| 20260506183402 | 65 | 168 | 0.0 | 2.6 | 0.00 | 0.03 | 0.03 | 88 | 1012.4 |
| 20260506183303 | 65 | 110 | 0.0 | 2.6 | 0.00 | 0.03 | 0.03 | 88 | 1012.5 |
| 20260506183202 | 65 | 183 | 0.0 | 2.6 | 0.00 | 0.03 | 0.03 | 88 | 1012.5 |
| 20260506183103 | 65 | 169 | 0.0 | 2.6 | 0.00 | 0.03 | 0.03 | 88 | 1012.5 |
| 20260506182958 | 65 | 183 | 0.0 | 2.6 | 0.00 | 0.03 | 0.03 | 88 | 1012.5 |
| 20260506182855 | 65 | 205 | 0.0 | 2.6 | 0.00 | 0.03 | 0.03 | 88 | 1012.6 |
| 20260506182756 | 65 | 146 | 0.0 | 2.6 | 0.00 | 0.03 | 0.03 | 88 | 1012.6 |
| 20260506182656 | 65 | 126 | 0.0 | 2.6 | 0.00 | 0.03 | 0.03 | 88 | 1012.5 |
| 20260506182557 | 65 | 178 | 0.0 | 2.6 | 0.00 | 0.03 | 0.03 | 87 | 1012.7 |
| 20260506182447 | 65 | 187 | 0.0 | 1.7 | 0.00 | 0.03 | 0.03 | 87 | 1012.6 |
| 20260506182346 | 65 | 267 | 0.0 | 1.7 | 0.00 | 0.03 | 0.03 | 87 | 1012.6 |
| 20260506182246 | 65 | 207 | 0.0 | 1.7 | 0.00 | 0.03 | 0.03 | 88 | 1012.5 |
| 20260506182146 | 65 | 159 | 0.0 | 1.7 | 0.00 | 0.03 | 0.03 | 88 | 1012.5 |
| 20260506182046 | 65 | 184 | 0.0 | 1.7 | 0.00 | 0.03 | 0.03 | 88 | 1012.5 |
| 20260506181939 | 65 | 203 | 0.0 | 1.7 | 0.00 | 0.03 | 0.03 | 88 | 1012.6 |
| 20260506181841 | 65 | 136 | 0.0 | 1.7 | 0.00 | 0.03 | 0.03 | 87 | 1012.7 |
| 20260506181739 | 65 | 152 | 0.0 | 0.9 | 0.00 | 0.03 | 0.03 | 87 | 1012.7 |
| 20260506181641 | 65 | 152 | 0.0 | 0.9 | 0.00 | 0.03 | 0.03 | 87 | 1012.7 |
| 20260506181541 | 65 | 146 | 0.0 | 0.9 | 0.00 | 0.03 | 0.03 | 87 | 1012.6 |
| 20260506181433 | 65 | 146 | 0.0 | 0.9 | 0.00 | 0.03 | 0.03 | 87 | 1012.8 |
| 20260506181334 | 65 | 138 | 0.0 | 0.9 | 0.00 | 0.03 | 0.03 | 87 | 1012.8 |
| 20260506181233 | 65 | 163 | 0.0 | 0.9 | 0.00 | 0.03 | 0.03 | 87 | 1012.8 |
| 20260506181135 | 65 | 169 | 0.0 | 0.9 | 0.00 | 0.03 | 0.03 | 87 | 1012.8 |
| 20260506181035 | 65 | 139 | 0.0 | 0.9 | 0.01 | 0.03 | 0.03 | 87 | 1012.8 |
| 20260506180931 | 65 | 139 | 0.0 | 0.9 | 0.01 | 0.03 | 0.03 | 87 | 1012.8 |
| 20260506180827 | 65 | 132 | 0.0 | 0.0 | 0.01 | 0.03 | 0.03 | 87 | 1012.9 |
| 20260506180729 | 65 | 138 | 0.0 | 0.0 | 0.01 | 0.03 | 0.03 | 87 | 1012.9 |
| 20260506180625 | 65 | 131 | 0.0 | 0.0 | 0.01 | 0.03 | 0.03 | 87 | 1012.9 |
| 20260506180524 | 65 | 157 | 0.0 | 0.9 | 0.01 | 0.03 | 0.03 | 87 | 1012.9 |
| 20260506180418 | 65 | 184 | 0.0 | 0.9 | 0.01 | 0.03 | 0.03 | 87 | 1012.9 |
| 20260506180318 | 65 | 209 | 0.0 | 0.9 | 0.01 | 0.03 | 0.03 | 87 | 1013.0 |
| 20260506180219 | 65 | 124 | 0.0 | 0.9 | 0.01 | 0.03 | 0.03 | 86 | 1012.9 |
| 20260506180118 | 65 | 139 | 0.0 | 0.9 | 0.01 | 0.03 | 0.03 | 86 | 1012.8 |
| 20260506180019 | 65 | 134 | 0.0 | 0.9 | 0.01 | 0.03 | 0.03 | 86 | 1012.8 |
| 20260506175914 | 65 | 178 | 0.0 | 0.9 | 0.01 | 0.03 | 0.03 | 87 | 1012.7 |
| 20260506175815 | 65 | 162 | 0.0 | 0.9 | 0.02 | 0.03 | 0.03 | 87 | 1012.8 |
| 20260506175714 | 65 | 138 | 0.0 | 0.9 | 0.02 | 0.03 | 0.03 | 87 | 1012.8 |
| 20260506175613 | 65 | 192 | 0.0 | 0.9 | 0.02 | 0.03 | 0.03 | 87 | 1012.9 |
| 20260506175513 | 65 | 166 | 0.0 | 0.9 | 0.02 | 0.03 | 0.03 | 87 | 1013.1 |
| 20260506175404 | 65 | 172 | 0.0 | 1.7 | 0.02 | 0.03 | 0.03 | 87 | 1013.0 |
| 20260506175306 | 65 | 173 | 0.0 | 3.5 | 0.02 | 0.03 | 0.03 | 87 | 1013.0 |
| 20260506175204 | 65 | 173 | 0.0 | 3.5 | 0.02 | 0.03 | 0.03 | 88 | 1013.1 |
| 20260506175105 | 65 | 221 | 0.0 | 3.5 | 0.02 | 0.03 | 0.03 | 88 | 1012.8 |
| 20260506175004 | 65 | 180 | 0.9 | 5.2 | 0.02 | 0.03 | 0.03 | 88 | 1012.8 |
| 20260506174904 | 65 | 123 | 1.7 | 7.0 | 0.02 | 0.03 | 0.03 | 89 | 1012.9 |
| 20260506174805 | 65 | 130 | 1.7 | 7.8 | 0.02 | 0.03 | 0.03 | 90 | 1012.9 |
| 20260506174703 | 65 | 158 | 1.7 | 7.8 | 0.02 | 0.03 | 0.03 | 90 | 1013.0 |
| 20260506174605 | 65 | 130 | 2.6 | 7.8 | 0.02 | 0.03 | 0.03 | 90 | 1012.9 |
| 20260506174504 | 64 | 198 | 3.5 | 7.8 | 0.02 | 0.03 | 0.03 | 90 | 1012.9 |
| 20260506174405 | 64 | 209 | 3.5 | 7.8 | 0.02 | 0.03 | 0.03 | 89 | 1012.9 |
| 20260506174304 | 64 | 129 | 4.3 | 7.8 | 0.02 | 0.03 | 0.03 | 90 | 1012.9 |
| 20260506174203 | 64 | 143 | 4.3 | 7.8 | 0.02 | 0.03 | 0.03 | 90 | 1012.9 |
| 20260506174104 | 64 | 124 | 4.3 | 7.8 | 0.02 | 0.03 | 0.03 | 90 | 1012.8 |
| 20260506174004 | 63 | 167 | 4.3 | 7.8 | 0.02 | 0.03 | 0.03 | 91 | 1012.8 |
| 20260506173904 | 63 | 159 | 3.5 | 7.8 | 0.02 | 0.03 | 0.03 | 91 | 1012.8 |
| 20260506173805 | 63 | 171 | 3.5 | 7.8 | 0.02 | 0.03 | 0.03 | 91 | 1012.6 |
| 20260506173700 | 63 | 159 | 3.5 | 7.8 | 0.02 | 0.03 | 0.03 | 91 | 1012.7 |
| 20260506173559 | 62 | 165 | 3.5 | 7.8 | 0.02 | 0.03 | 0.03 | 91 | 1012.8 |
| 20260506173459 | 62 | 96 | 3.5 | 7.8 | 0.03 | 0.03 | 0.03 | 91 | 1012.8 |
| 20260506173400 | 62 | 171 | 2.6 | 8.7 | 0.03 | 0.03 | 0.03 | 91 | 1012.9 |
| 20260506173300 | 62 | 115 | 2.6 | 8.7 | 0.03 | 0.03 | 0.03 | 91 | 1013.0 |
| 20260506173200 | 62 | 85 | 2.6 | 8.7 | 0.03 | 0.03 | 0.03 | 91 | 1013.1 |
| 20260506173101 | 62 | 150 | 3.5 | 8.7 | 0.03 | 0.03 | 0.03 | 91 | 1013.2 |
| 20260506172959 | 62 | 167 | 3.5 | 9.6 | 0.03 | 0.03 | 0.03 | 91 | 1013.2 |
| 20260506172901 | 62 | 155 | 3.5 | 9.6 | 0.03 | 0.03 | 0.03 | 91 | 1013.2 |
| 20260506172800 | 62 | 157 | 3.5 | 9.6 | 0.03 | 0.03 | 0.03 | 91 | 1013.3 |
| 20260506172701 | 62 | 166 | 3.5 | 9.6 | 0.03 | 0.03 | 0.03 | 90 | 1013.4 |
| 20260506172600 | 62 | 238 | 4.3 | 9.6 | 0.03 | 0.03 | 0.03 | 91 | 1013.4 |
| 20260506172500 | 61 | 154 | 3.5 | 9.6 | 0.03 | 0.03 | 0.03 | 91 | 1013.5 |
| 20260506172400 | 61 | 155 | 3.5 | 9.6 | 0.03 | 0.03 | 0.03 | 91 | 1013.7 |
| 20260506172301 | 61 | 143 | 3.5 | 9.6 | 0.03 | 0.03 | 0.03 | 90 | 1013.7 |
| 20260506172201 | 61 | 207 | 3.5 | 9.6 | 0.03 | 0.03 | 0.03 | 90 | 1013.7 |
| 20260506172101 | 61 | 287 | 3.5 | 9.6 | 0.03 | 0.03 | 0.03 | 90 | 1013.8 |
| 20260506172001 | 61 | 175 | 4.3 | 9.6 | 0.03 | 0.03 | 0.03 | 90 | 1013.9 |
| 20260506171900 | 61 | 174 | 3.5 | 9.6 | 0.03 | 0.03 | 0.03 | 90 | 1013.8 |
| 20260506171800 | 61 | 133 | 3.5 | 9.6 | 0.03 | 0.03 | 0.03 | 90 | 1013.9 |
| 20260506171659 | 61 | 155 | 3.5 | 9.6 | 0.03 | 0.03 | 0.03 | 90 | 1013.9 |
| 20260506171557 | 61 | 144 | 3.5 | 9.6 | 0.03 | 0.03 | 0.03 | 90 | 1014.0 |
| 20260506171458 | 61 | 143 | 4.3 | 9.6 | 0.03 | 0.03 | 0.03 | 90 | 1014.1 |
| 20260506171359 | 61 | 162 | 4.3 | 9.6 | 0.03 | 0.03 | 0.03 | 90 | 1014.1 |
| 20260506171258 | 61 | 160 | 4.3 | 10.4 | 0.03 | 0.03 | 0.03 | 90 | 1014.2 |
| 20260506171157 | 61 | 140 | 4.3 | 10.4 | 0.03 | 0.03 | 0.03 | 90 | 1014.2 |
| 20260506171057 | 61 | 132 | 4.3 | 11.3 | 0.02 | 0.02 | 0.03 | 90 | 1014.3 |
| 20260506170958 | 61 | 185 | 3.5 | 11.3 | 0.02 | 0.02 | 0.02 | 90 | 1014.3 |
| 20260506170857 | 61 | 185 | 3.5 | 11.3 | 0.02 | 0.02 | 0.02 | 90 | 1014.4 |
| 20260506170759 | 61 | 148 | 3.5 | 11.3 | 0.02 | 0.02 | 0.02 | 90 | 1014.5 |
| 20260506170656 | 61 | 148 | 3.5 | 11.3 | 0.02 | 0.02 | 0.02 | 90 | 1014.5 |
| 20260506170556 | 61 | 105 | 3.5 | 11.3 | 0.02 | 0.02 | 0.02 | 90 | 1014.6 |
| 20260506170456 | 61 | 167 | 3.5 | 11.3 | 0.02 | 0.02 | 0.02 | 89 | 1014.6 |
| 20260506170357 | 61 | 200 | 2.6 | 11.3 | 0.02 | 0.02 | 0.02 | 89 | 1014.5 |
| 20260506170249 | 61 | 150 | 2.6 | 11.3 | 0.02 | 0.02 | 0.02 | 89 | 1014.4 |
| 20260506170149 | 62 | 165 | 2.6 | 11.3 | 0.02 | 0.02 | 0.02 | 90 | 1014.4 |
| 20260506170050 | 62 | 135 | 2.6 | 6.1 | 0.02 | 0.02 | 0.02 | 90 | 1014.4 |
| 20260506165949 | 62 | 159 | 2.6 | 6.1 | 0.02 | 0.02 | 0.02 | 90 | 1014.4 |
| 20260506165851 | 62 | 182 | 2.6 | 6.1 | 0.02 | 0.02 | 0.02 | 90 | 1014.4 |
| 20260506165745 | 62 | 215 | 2.6 | 6.1 | 0.01 | 0.01 | 0.01 | 90 | 1014.4 |
| 20260506165658 | 62 | 196 | 2.6 | 8.7 | 0.01 | 0.01 | 0.01 | 90 | 1014.3 |
| 20260506165545 | 62 | 126 | 2.6 | 9.6 | 0.01 | 0.01 | 0.01 | 90 | 1014.4 |
| 20260506165443 | 62 | 145 | 3.5 | 9.6 | 0.01 | 0.01 | 0.01 | 90 | 1014.3 |
| 20260506165345 | 62 | 180 | 3.5 | 9.6 | 0.01 | 0.01 | 0.01 | 90 | 1014.4 |
| 20260506165238 | 61 | 147 | 3.5 | 9.6 | 0.01 | 0.01 | 0.01 | 90 | 1014.4 |
| 20260506165138 | 61 | 173 | 3.5 | 9.6 | 0.01 | 0.01 | 0.01 | 90 | 1014.3 |
| 20260506165039 | 61 | 167 | 3.5 | 9.6 | 0.01 | 0.01 | 0.01 | 90 | 1014.3 |
| 20260506164936 | 61 | 212 | 3.5 | 9.6 | 0.01 | 0.01 | 0.01 | 90 | 1014.3 |
| 20260506164834 | 61 | 173 | 3.5 | 9.6 | 0.01 | 0.01 | 0.01 | 90 | 1014.3 |
| 20260506164729 | 61 | 166 | 3.5 | 9.6 | 0.01 | 0.01 | 0.01 | 90 | 1014.3 |
| 20260506164628 | 61 | 171 | 2.6 | 9.6 | 0.01 | 0.01 | 0.01 | 90 | 1014.3 |
| 20260506164529 | 61 | 185 | 2.6 | 8.7 | 0.01 | 0.01 | 0.01 | 89 | 1014.3 |
| 20260506164427 | 61 | 142 | 2.6 | 8.7 | 0.01 | 0.01 | 0.01 | 89 | 1014.4 |
| 20260506164329 | 61 | 138 | 2.6 | 8.7 | 0.01 | 0.01 | 0.01 | 89 | 1014.4 |
| 20260506164228 | 61 | 146 | 2.6 | 8.7 | 0.01 | 0.01 | 0.01 | 89 | 1014.4 |
| 20260506164128 | 61 | 164 | 2.6 | 8.7 | 0.01 | 0.01 | 0.01 | 89 | 1014.5 |
| 20260506164028 | 61 | 196 | 2.6 | 8.7 | 0.01 | 0.01 | 0.01 | 89 | 1014.5 |
| 20260506163927 | 61 | 201 | 2.6 | 8.7 | 0.01 | 0.01 | 0.01 | 89 | 1014.6 |
| 20260506163828 | 61 | 149 | 2.6 | 8.7 | 0.01 | 0.01 | 0.01 | 89 | 1014.5 |
| 20260506163729 | 61 | 96 | 2.6 | 8.7 | 0.01 | 0.01 | 0.01 | 89 | 1014.5 |
| 20260506163626 | 61 | 269 | 2.6 | 8.7 | 0.01 | 0.01 | 0.01 | 88 | 1014.5 |
| 20260506163526 | 61 | 111 | 2.6 | 8.7 | 0.00 | 0.00 | 0.01 | 89 | 1014.5 |
| 20260506163425 | 61 | 142 | 2.6 | 8.7 | 0.00 | 0.00 | 0.00 | 88 | 1014.6 |
| 20260506163327 | 61 | 140 | 2.6 | 8.7 | 0.00 | 0.00 | 0.00 | 88 | 1014.6 |
| 20260506163227 | 61 | 163 | 2.6 | 8.7 | 0.00 | 0.00 | 0.00 | 88 | 1014.6 |
| 20260506163127 | 61 | 144 | 2.6 | 8.7 | 0.00 | 0.00 | 0.00 | 88 | 1014.7 |
| 20260506163023 | 61 | 203 | 2.6 | 8.7 | 0.00 | 0.00 | 0.00 | 88 | 1014.6 |
| 20260506162925 | 61 | 184 | 2.6 | 8.7 | 0.00 | 0.00 | 0.00 | 87 | 1014.7 |
| 20260506162824 | 61 | 32 | 2.6 | 8.7 | 0.00 | 0.00 | 0.00 | 88 | 1014.6 |
| 20260506162724 | 61 | 159 | 2.6 | 8.7 | 0.00 | 0.00 | 0.00 | 87 | 1014.6 |
| 20260506162625 | 61 | 167 | 2.6 | 8.7 | 0.00 | 0.00 | 0.00 | 87 | 1014.7 |
| 20260506162524 | 61 | 148 | 1.7 | 6.1 | 0.00 | 0.00 | 0.00 | 88 | 1014.7 |
| 20260506162425 | 61 | 78 | 1.7 | 6.1 | 0.00 | 0.00 | 0.00 | 87 | 1014.8 |
| 20260506162324 | 61 | 111 | 1.7 | 6.1 | 0.00 | 0.00 | 0.00 | 87 | 1015.0 |
| 20260506162224 | 61 | 77 | 1.7 | 6.1 | 0.00 | 0.00 | 0.00 | 87 | 1014.8 |
| 20260506162124 | 62 | 184 | 1.7 | 6.1 | 0.00 | 0.00 | 0.00 | 87 | 1015.0 |
| 20260506162023 | 62 | 176 | 1.7 | 7.0 | 0.00 | 0.00 | 0.00 | 87 | 1015.0 |
| 20260506161925 | 62 | 110 | 1.7 | 7.0 | 0.00 | 0.00 | 0.00 | 87 | 1015.0 |
| 20260506161821 | 62 | 110 | 1.7 | 7.0 | 0.00 | 0.00 | 0.00 | 87 | 1015.0 |
| 20260506161718 | 61 | 138 | 1.7 | 7.0 | 0.00 | 0.00 | 0.00 | 87 | 1015.0 |
| 20260506161619 | 61 | 138 | 1.7 | 7.0 | 0.00 | 0.00 | 0.00 | 87 | 1014.8 |
| 20260506161519 | 61 | 130 | 1.7 | 7.0 | 0.00 | 0.00 | 0.00 | 87 | 1015.0 |
| 20260506161418 | 61 | 200 | 1.7 | 7.0 | 0.00 | 0.00 | 0.00 | 87 | 1014.9 |
| 20260506161313 | 61 | 146 | 1.7 | 7.0 | 0.00 | 0.00 | 0.00 | 87 | 1014.9 |
| 20260506161213 | 61 | 159 | 1.7 | 7.0 | 0.00 | 0.00 | 0.00 | 87 | 1014.8 |
| 20260506161112 | 61 | 67 | 0.9 | 4.3 | 0.00 | 0.00 | 0.00 | 87 | 1014.9 |
| 20260506161012 | 61 | 135 | 0.9 | 4.3 | 0.00 | 0.00 | 0.00 | 87 | 1014.9 |
| 20260506160912 | 61 | 150 | 0.9 | 4.3 | 0.00 | 0.00 | 0.00 | 87 | 1014.8 |
| 20260506160812 | 61 | 150 | 0.9 | 6.1 | 0.00 | 0.00 | 0.00 | 88 | 1014.7 |
| 20260506160713 | 61 | 145 | 0.9 | 6.1 | 0.00 | 0.00 | 0.00 | 88 | 1014.7 |
| 20260506160611 | 61 | 145 | 0.9 | 6.1 | 0.00 | 0.00 | 0.00 | 88 | 1014.6 |
| 20260506160513 | 61 | 176 | 0.9 | 6.1 | 0.00 | 0.00 | 0.00 | 87 | 1014.6 |
| 20260506160409 | 61 | 171 | 0.9 | 6.1 | 0.00 | 0.00 | 0.00 | 87 | 1014.5 |
| 20260506160309 | 61 | 94 | 0.9 | 6.1 | 0.00 | 0.00 | 0.00 | 87 | 1014.6 |
| 20260506160209 | 61 | 94 | 1.7 | 6.1 | 0.00 | 0.00 | 0.00 | 87 | 1014.6 |
| 20260506160110 | 61 | 92 | 1.7 | 6.1 | 0.00 | 0.00 | 0.00 | 87 | 1014.7 |
| 20260506160010 | 61 | 94 | 1.7 | 7.8 | 0.00 | 0.00 | 0.00 | 87 | 1014.7 |
| 20260506155911 | 61 | 86 | 2.6 | 7.8 | 0.00 | 0.00 | 0.00 | 87 | 1014.7 |
| 20260506155807 | 60 | 104 | 2.6 | 7.8 | 0.00 | 0.00 | 0.00 | 88 | 1014.7 |
| 20260506155708 | 61 | 236 | 2.6 | 7.8 | 0.00 | 0.00 | 0.00 | 87 | 1014.5 |
| 20260506155609 | 60 | 245 | 3.5 | 7.8 | 0.00 | 0.00 | 0.00 | 87 | 1014.5 |
| 20260506155507 | 61 | 258 | 3.5 | 7.8 | 0.00 | 0.00 | 0.00 | 87 | 1014.5 |
| 20260506155407 | 60 | 196 | 3.5 | 7.8 | 0.00 | 0.00 | 0.00 | 87 | 1014.4 |
| 20260506155307 | 60 | 175 | 3.5 | 7.8 | 0.00 | 0.00 | 0.00 | 88 | 1014.4 |
| 20260506155209 | 60 | 120 | 3.5 | 7.8 | 0.00 | 0.00 | 0.00 | 88 | 1014.4 |
| 20260506155107 | 60 | 185 | 3.5 | 7.8 | 0.00 | 0.00 | 0.00 | 88 | 1014.2 |
| 20260506155009 | 60 | 69 | 3.5 | 7.8 | 0.00 | 0.00 | 0.00 | 88 | 1014.1 |
| 20260506154903 | 60 | 118 | 3.5 | 7.8 | 0.00 | 0.00 | 0.00 | 88 | 1014.2 |
| 20260506154804 | 60 | 166 | 2.6 | 7.8 | 0.00 | 0.00 | 0.00 | 88 | 1014.2 |
| 20260506154703 | 60 | 163 | 2.6 | 7.8 | 0.00 | 0.00 | 0.00 | 88 | 1014.2 |
| 20260506154605 | 60 | 126 | 1.7 | 7.8 | 0.00 | 0.00 | 0.00 | 88 | 1014.3 |
| 20260506154504 | 60 | 172 | 1.7 | 7.8 | 0.00 | 0.00 | 0.00 | 88 | 1014.3 |
| 20260506154403 | 60 | 136 | 1.7 | 6.1 | 0.00 | 0.00 | 0.00 | 88 | 1014.3 |
| 20260506154303 | 60 | 147 | 1.7 | 8.7 | 0.00 | 0.00 | 0.00 | 88 | 1014.5 |
| 20260506154203 | 60 | 134 | 1.7 | 8.7 | 0.00 | 0.00 | 0.00 | 88 | 1014.4 |
| 20260506154104 | 60 | 94 | 1.7 | 8.7 | 0.00 | 0.00 | 0.00 | 87 | 1014.4 |
| 20260506154005 | 60 | 167 | 1.7 | 8.7 | 0.00 | 0.00 | 0.00 | 87 | 1014.5 |
| 20260506153904 | 60 | 170 | 1.7 | 8.7 | 0.00 | 0.00 | 0.00 | 87 | 1014.4 |
| 20260506153803 | 60 | 170 | 2.6 | 8.7 | 0.00 | 0.00 | 0.00 | 87 | 1014.2 |
| 20260506153703 | 60 | 169 | 2.6 | 8.7 | 0.00 | 0.00 | 0.00 | 87 | 1014.2 |
| 20260506153605 | 60 | 170 | 2.6 | 8.7 | 0.00 | 0.00 | 0.00 | 87 | 1014.1 |
| 20260506153504 | 60 | 168 | 2.6 | 8.7 | 0.00 | 0.00 | 0.00 | 87 | 1014.1 |
| 20260506153404 | 60 | 155 | 2.6 | 8.7 | 0.00 | 0.00 | 0.00 | 87 | 1014.0 |
| 20260506153304 | 60 | 124 | 2.6 | 4.3 | 0.00 | 0.00 | 0.00 | 87 | 1013.9 |
| 20260506153205 | 61 | 128 | 2.6 | 7.0 | 0.00 | 0.00 | 0.00 | 87 | 1013.8 |
| 20260506153104 | 61 | 145 | 2.6 | 7.0 | 0.00 | 0.00 | 0.00 | 87 | 1013.9 |
| 20260506153005 | 61 | 173 | 2.6 | 7.0 | 0.00 | 0.00 | 0.00 | 87 | 1013.9 |
| 20260506152904 | 61 | 132 | 2.6 | 7.0 | 0.00 | 0.00 | 0.00 | 87 | 1014.0 |
| 20260506152803 | 61 | 163 | 1.7 | 7.0 | 0.00 | 0.00 | 0.00 | 87 | 1014.0 |
| 20260506152704 | 61 | 150 | 2.6 | 7.0 | 0.00 | 0.00 | 0.00 | 87 | 1014.2 |
| 20260506152603 | 61 | 150 | 2.6 | 8.7 | 0.00 | 0.00 | 0.00 | 87 | 1014.1 |
| 20260506152504 | 61 | 150 | 2.6 | 8.7 | 0.00 | 0.00 | 0.00 | 86 | 1014.0 |
| 20260506152404 | 61 | 146 | 2.6 | 8.7 | 0.00 | 0.00 | 0.00 | 86 | 1014.1 |
| 20260506152305 | 61 | 147 | 2.6 | 8.7 | 0.00 | 0.00 | 0.00 | 87 | 1014.2 |
| 20260506152203 | 61 | 162 | 2.6 | 8.7 | 0.00 | 0.00 | 0.00 | 87 | 1014.3 |
| 20260506152104 | 61 | 232 | 2.6 | 8.7 | 0.00 | 0.00 | 0.00 | 87 | 1014.2 |
| 20260506152004 | 61 | 168 | 1.7 | 8.7 | 0.00 | 0.00 | 0.00 | 86 | 1014.3 |
| 20260506151903 | 61 | 172 | 1.7 | 8.7 | 0.00 | 0.00 | 0.00 | 86 | 1014.3 |
| 20260506151805 | 61 | 173 | 1.7 | 8.7 | 0.00 | 0.00 | 0.00 | 86 | 1014.4 |
| 20260506151704 | 61 | 150 | 0.9 | 6.1 | 0.00 | 0.00 | 0.00 | 86 | 1014.2 |
| 20260506151600 | 61 | 298 | 0.9 | 5.2 | 0.00 | 0.00 | 0.00 | 87 | 1014.3 |
| 20260506151500 | 61 | 173 | 0.9 | 4.3 | 0.00 | 0.00 | 0.00 | 87 | 1014.3 |
| 20260506151359 | 61 | 186 | 0.9 | 4.3 | 0.00 | 0.00 | 0.00 | 87 | 1014.2 |
| 20260506151301 | 61 | 197 | 0.9 | 4.3 | 0.00 | 0.00 | 0.00 | 87 | 1014.1 |
| 20260506151200 | 61 | 155 | 0.9 | 5.2 | 0.00 | 0.00 | 0.00 | 86 | 1014.2 |
| 20260506151059 | 61 | 155 | 0.9 | 5.2 | 0.00 | 0.00 | 0.00 | 86 | 1014.0 |
| 20260506151000 | 61 | 155 | 1.7 | 5.2 | 0.00 | 0.00 | 0.00 | 86 | 1013.7 |
| 20260506150900 | 61 | 155 | 1.7 | 5.2 | 0.00 | 0.00 | 0.00 | 86 | 1013.5 |
| 20260506150759 | 61 | 148 | 1.7 | 5.2 | 0.00 | 0.00 | 0.00 | 86 | 1013.5 |
| 20260506150701 | 61 | 140 | 1.7 | 6.1 | 0.00 | 0.00 | 0.00 | 86 | 1013.3 |
| 20260506150600 | 61 | 140 | 1.7 | 6.1 | 0.00 | 0.00 | 0.00 | 86 | 1013.4 |
| 20260506150500 | 61 | 140 | 2.6 | 6.1 | 0.00 | 0.00 | 0.00 | 86 | 1013.4 |
| 20260506150401 | 61 | 140 | 2.6 | 6.1 | 0.00 | 0.00 | 0.00 | 86 | 1013.3 |
| 20260506150303 | 61 | 138 | 2.6 | 6.1 | 0.00 | 0.00 | 0.00 | 86 | 1013.3 |
| 20260506150200 | 61 | 153 | 2.6 | 6.1 | 0.00 | 0.00 | 0.00 | 86 | 1013.3 |
| 20260506150100 | 61 | 154 | 2.6 | 6.1 | 0.00 | 0.00 | 0.00 | 86 | 1013.3 |
| 20260506150001 | 61 | 153 | 2.6 | 6.1 | 0.00 | 0.00 | 0.00 | 87 | 1013.3 |
| 20260506145901 | 61 | 136 | 2.6 | 6.1 | 0.00 | 0.00 | 0.00 | 87 | 1013.3 |
| 20260506145759 | 61 | 174 | 2.6 | 6.1 | 0.00 | 0.00 | 0.00 | 87 | 1013.4 |
| 20260506145659 | 61 | 154 | 2.6 | 6.1 | 0.00 | 0.00 | 0.00 | 87 | 1013.4 |
| 20260506145600 | 61 | 178 | 2.6 | 6.1 | 0.00 | 0.00 | 0.00 | 87 | 1013.3 |
| 20260506145501 | 61 | 144 | 1.7 | 5.2 | 0.00 | 0.00 | 0.00 | 87 | 1013.3 |
| 20260506145400 | 61 | 136 | 1.7 | 4.3 | 0.00 | 0.00 | 0.00 | 87 | 1013.3 |
| 20260506145259 | 60 | 134 | 1.7 | 4.3 | 0.00 | 0.00 | 0.00 | 87 | 1013.2 |
| 20260506145159 | 60 | 134 | 1.7 | 4.3 | 0.00 | 0.00 | 0.00 | 88 | 1013.2 |
| 20260506145100 | 60 | 134 | 1.7 | 4.3 | 0.00 | 0.00 | 0.00 | 87 | 1013.2 |
| 20260506144952 | 60 | 129 | 1.7 | 4.3 | 0.00 | 0.00 | 0.00 | 87 | 1013.3 |
| 20260506144852 | 60 | 137 | 1.7 | 4.3 | 0.00 | 0.00 | 0.00 | 87 | 1013.3 |
| 20260506144752 | 60 | 144 | 1.7 | 4.3 | 0.00 | 0.00 | 0.00 | 87 | 1013.4 |
| 20260506144651 | 60 | 173 | 1.7 | 4.3 | 0.00 | 0.00 | 0.00 | 87 | 1013.4 |
| 20260506144553 | 60 | 122 | 1.7 | 3.5 | 0.00 | 0.00 | 0.00 | 87 | 1013.4 |
| 20260506144453 | 60 | 122 | 1.7 | 4.3 | 0.00 | 0.00 | 0.00 | 87 | 1013.4 |
| 20260506144351 | 60 | 122 | 1.7 | 4.3 | 0.00 | 0.00 | 0.00 | 87 | 1013.4 |
| 20260506144252 | 60 | 115 | 1.7 | 4.3 | 0.00 | 0.00 | 0.00 | 87 | 1013.4 |
| 20260506144151 | 60 | 120 | 1.7 | 4.3 | 0.00 | 0.00 | 0.00 | 87 | 1013.5 |
| 20260506144052 | 60 | 118 | 1.7 | 4.3 | 0.00 | 0.00 | 0.00 | 87 | 1013.5 |
| 20260506143951 | 60 | 119 | 1.7 | 4.3 | 0.00 | 0.00 | 0.00 | 86 | 1013.4 |
| 20260506143852 | 60 | 138 | 0.9 | 4.3 | 0.00 | 0.00 | 0.00 | 86 | 1013.4 |
| 20260506143751 | 60 | 138 | 0.9 | 4.3 | 0.00 | 0.00 | 0.00 | 86 | 1013.5 |
| 20260506143652 | 60 | 131 | 1.7 | 4.3 | 0.00 | 0.00 | 0.00 | 86 | 1013.7 |
| 20260506143552 | 60 | 130 | 1.7 | 4.3 | 0.00 | 0.00 | 0.00 | 86 | 1013.5 |
| 20260506143452 | 60 | 144 | 1.7 | 4.3 | 0.00 | 0.00 | 0.00 | 86 | 1013.7 |
| 20260506143352 | 60 | 144 | 1.7 | 4.3 | 0.00 | 0.00 | 0.00 | 86 | 1013.5 |
| 20260506143252 | 60 | 101 | 1.7 | 4.3 | 0.00 | 0.00 | 0.00 | 85 | 1013.5 |
| 20260506143151 | 60 | 99 | 1.7 | 4.3 | 0.00 | 0.00 | 0.00 | 85 | 1013.4 |
| 20260506143051 | 60 | 88 | 1.7 | 4.3 | 0.00 | 0.00 | 0.00 | 85 | 1013.5 |
| 20260506142951 | 60 | 14 | 1.7 | 4.3 | 0.00 | 0.00 | 0.00 | 85 | 1013.5 |
| 20260506142853 | 60 | 175 | 2.6 | 4.3 | 0.00 | 0.00 | 0.00 | 85 | 1013.4 |
| 20260506142751 | 60 | 175 | 2.6 | 5.2 | 0.00 | 0.00 | 0.00 | 85 | 1013.5 |
| 20260506142652 | 60 | 156 | 2.6 | 5.2 | 0.00 | 0.00 | 0.00 | 85 | 1013.4 |
| 20260506142551 | 60 | 131 | 2.6 | 6.1 | 0.00 | 0.00 | 0.00 | 85 | 1013.4 |
| 20260506142452 | 60 | 132 | 2.6 | 6.1 | 0.00 | 0.00 | 0.00 | 85 | 1013.4 |
| 20260506142352 | 60 | 144 | 2.6 | 6.1 | 0.00 | 0.00 | 0.00 | 85 | 1013.5 |
| 20260506142251 | 60 | 109 | 2.6 | 6.1 | 0.00 | 0.00 | 0.00 | 85 | 1013.5 |
| 20260506142151 | 60 | 138 | 2.6 | 6.1 | 0.00 | 0.00 | 0.00 | 85 | 1013.5 |
| 20260506142053 | 60 | 136 | 2.6 | 6.1 | 0.00 | 0.00 | 0.00 | 86 | 1013.5 |
| 20260506141952 | 60 | 164 | 2.6 | 6.1 | 0.00 | 0.00 | 0.00 | 85 | 1013.4 |
| 20260506141851 | 60 | 112 | 1.7 | 6.1 | 0.00 | 0.00 | 0.00 | 86 | 1013.5 |
| 20260506141752 | 60 | 142 | 1.7 | 6.1 | 0.00 | 0.00 | 0.00 | 86 | 1013.4 |
| 20260506141647 | 60 | 142 | 1.7 | 6.1 | 0.00 | 0.00 | 0.00 | 86 | 1013.5 |
| 20260506141547 | 60 | 130 | 1.7 | 6.1 | 0.00 | 0.00 | 0.00 | 86 | 1013.4 |
| 20260506141447 | 60 | 123 | 1.7 | 3.5 | 0.00 | 0.00 | 0.00 | 86 | 1013.4 |
| 20260506141347 | 60 | 192 | 1.7 | 3.5 | 0.00 | 0.00 | 0.00 | 86 | 1013.4 |
| 20260506141247 | 60 | 194 | 0.9 | 3.5 | 0.00 | 0.00 | 0.00 | 86 | 1013.4 |
| 20260506141149 | 60 | 146 | 0.9 | 3.5 | 0.00 | 0.00 | 0.00 | 86 | 1013.3 |
| 20260506141047 | 60 | 94 | 0.9 | 3.5 | 0.00 | 0.00 | 0.00 | 86 | 1013.3 |
| 20260506140948 | 60 | 162 | 0.9 | 3.5 | 0.00 | 0.00 | 0.00 | 86 | 1013.4 |
| 20260506140847 | 60 | 162 | 0.9 | 3.5 | 0.00 | 0.00 | 0.00 | 86 | 1013.4 |
| 20260506140747 | 60 | 163 | 0.9 | 3.5 | 0.00 | 0.00 | 0.00 | 86 | 1013.3 |
| 20260506140647 | 60 | 163 | 0.9 | 3.5 | 0.00 | 0.00 | 0.00 | 86 | 1013.3 |
| 20260506140547 | 60 | 165 | 0.9 | 3.5 | 0.00 | 0.00 | 0.00 | 86 | 1013.2 |
| 20260506140447 | 60 | 85 | 0.9 | 3.5 | 0.00 | 0.00 | 0.00 | 86 | 1013.2 |
| 20260506140347 | 60 | 58 | 0.9 | 2.6 | 0.00 | 0.00 | 0.00 | 86 | 1013.4 |
| 20260506140248 | 60 | 58 | 0.9 | 2.6 | 0.00 | 0.00 | 0.00 | 86 | 1013.3 |
| 20260506140147 | 60 | 58 | 0.9 | 2.6 | 0.00 | 0.00 | 0.00 | 86 | 1013.3 |
| 20260506140047 | 60 | 58 | 0.9 | 2.6 | 0.00 | 0.00 | 0.00 | 86 | 1013.3 |
| 20260506135947 | 60 | 58 | 0.9 | 2.6 | 0.00 | 0.00 | 0.00 | 86 | 1013.3 |
| 20260506135847 | 60 | 58 | 0.9 | 2.6 | 0.00 | 0.00 | 0.00 | 86 | 1013.4 |
| 20260506135747 | 60 | 0 | 0.9 | 1.7 | 0.00 | 0.00 | 0.00 | 86 | 1013.5 |
| 20260506135647 | 60 | 0 | 0.9 | 2.6 | 0.00 | 0.00 | 0.00 | 86 | 1013.4 |
| 20260506135548 | 60 | 0 | 0.9 | 2.6 | 0.00 | 0.00 | 0.00 | 86 | 1013.4 |
| 20260506135447 | 60 | 355 | 0.9 | 2.6 | 0.00 | 0.00 | 0.00 | 86 | 1013.4 |
| 20260506135347 | 60 | 355 | 0.9 | 3.5 | 0.00 | 0.00 | 0.00 | 86 | 1013.5 |
| 20260506135248 | 60 | 355 | 0.9 | 3.5 | 0.00 | 0.00 | 0.00 | 86 | 1013.5 |
| 20260506135149 | 60 | 346 | 0.9 | 3.5 | 0.00 | 0.00 | 0.00 | 85 | 1013.7 |
| 20260506135048 | 60 | 346 | 0.9 | 3.5 | 0.00 | 0.00 | 0.00 | 85 | 1013.7 |
| 20260506134947 | 60 | 346 | 0.9 | 3.5 | 0.00 | 0.00 | 0.00 | 85 | 1013.7 |
| 20260506134848 | 60 | 346 | 0.9 | 3.5 | 0.00 | 0.00 | 0.00 | 85 | 1013.8 |
| 20260506134748 | 60 | 346 | 0.9 | 3.5 | 0.00 | 0.00 | 0.00 | 86 | 1013.7 |
| 20260506134647 | 60 | 346 | 0.9 | 4.3 | 0.00 | 0.00 | 0.00 | 86 | 1013.7 |
| 20260506134548 | 60 | 303 | 0.9 | 4.3 | 0.00 | 0.00 | 0.00 | 86 | 1013.7 |
| 20260506134448 | 60 | 240 | 0.9 | 4.3 | 0.00 | 0.00 | 0.00 | 86 | 1013.5 |
| 20260506134343 | 60 | 21 | 1.7 | 4.3 | 0.00 | 0.00 | 0.00 | 86 | 1013.4 |
| 20260506134244 | 60 | 94 | 1.7 | 4.3 | 0.00 | 0.00 | 0.00 | 85 | 1013.4 |
| 20260506134143 | 60 | 94 | 1.7 | 4.3 | 0.00 | 0.00 | 0.00 | 85 | 1013.5 |
| 20260506134045 | 60 | 136 | 1.7 | 4.3 | 0.00 | 0.00 | 0.00 | 85 | 1013.5 |
| 20260506133944 | 60 | 137 | 1.7 | 4.3 | 0.00 | 0.00 | 0.00 | 85 | 1013.4 |
| 20260506133844 | 60 | 137 | 1.7 | 4.3 | 0.00 | 0.00 | 0.00 | 85 | 1013.4 |
| 20260506133743 | 60 | 137 | 1.7 | 4.3 | 0.00 | 0.00 | 0.00 | 85 | 1013.3 |
| 20260506133643 | 60 | 145 | 1.7 | 4.3 | 0.00 | 0.00 | 0.00 | 85 | 1013.2 |
| 20260506133543 | 60 | 138 | 1.7 | 4.3 | 0.00 | 0.00 | 0.00 | 85 | 1013.3 |
| 20260506133444 | 60 | 132 | 1.7 | 4.3 | 0.00 | 0.00 | 0.00 | 85 | 1013.2 |
| 20260506133343 | 60 | 133 | 1.7 | 4.3 | 0.00 | 0.00 | 0.00 | 85 | 1013.3 |
| 20260506133244 | 60 | 129 | 1.7 | 4.3 | 0.00 | 0.00 | 0.00 | 85 | 1013.3 |
| 20260506133137 | 60 | 127 | 1.7 | 4.3 | 0.00 | 0.00 | 0.00 | 84 | 1013.4 |
| 20260506133036 | 60 | 126 | 1.7 | 4.3 | 0.00 | 0.00 | 0.00 | 84 | 1013.3 |
| 20260506132934 | 60 | 208 | 1.7 | 4.3 | 0.00 | 0.00 | 0.00 | 85 | 1013.4 |
| 20260506132835 | 60 | 153 | 1.7 | 4.3 | 0.00 | 0.00 | 0.00 | 85 | 1013.2 |
| 20260506132733 | 60 | 140 | 1.7 | 5.2 | 0.00 | 0.00 | 0.00 | 85 | 1013.3 |
| 20260506132630 | 60 | 115 | 1.7 | 5.2 | 0.00 | 0.00 | 0.00 | 85 | 1013.3 |
| 20260506132527 | 60 | 151 | 1.7 | 5.2 | 0.00 | 0.00 | 0.00 | 85 | 1013.2 |
| 20260506132427 | 60 | 160 | 1.7 | 5.2 | 0.00 | 0.00 | 0.00 | 85 | 1013.3 |
| 20260506132329 | 60 | 160 | 1.7 | 5.2 | 0.00 | 0.00 | 0.00 | 85 | 1013.1 |
| 20260506132229 | 60 | 172 | 1.7 | 5.2 | 0.00 | 0.00 | 0.00 | 85 | 1013.2 |
| 20260506132123 | 60 | 178 | 1.7 | 5.2 | 0.00 | 0.00 | 0.00 | 85 | 1013.2 |
| 20260506132023 | 60 | 130 | 1.7 | 5.2 | 0.00 | 0.00 | 0.00 | 85 | 1013.2 |
| 20260506131922 | 60 | 130 | 1.7 | 5.2 | 0.00 | 0.00 | 0.00 | 85 | 1013.3 |
| 20260506131821 | 60 | 146 | 1.7 | 5.2 | 0.00 | 0.00 | 0.00 | 85 | 1013.3 |
| 20260506131722 | 60 | 165 | 0.9 | 5.2 | 0.00 | 0.00 | 0.00 | 85 | 1013.3 |
| 20260506131613 | 60 | 178 | 1.7 | 5.2 | 0.00 | 0.00 | 0.00 | 85 | 1013.4 |
| 20260506131511 | 60 | 176 | 1.7 | 5.2 | 0.00 | 0.00 | 0.00 | 85 | 1013.3 |
| 20260506131412 | 60 | 178 | 1.7 | 5.2 | 0.00 | 0.00 | 0.00 | 85 | 1013.4 |
| 20260506131312 | 60 | 179 | 1.7 | 5.2 | 0.00 | 0.00 | 0.00 | 85 | 1013.5 |
| 20260506131211 | 60 | 181 | 1.7 | 5.2 | 0.00 | 0.00 | 0.00 | 85 | 1013.5 |
| 20260506131105 | 60 | 271 | 1.7 | 5.2 | 0.00 | 0.00 | 0.00 | 85 | 1013.3 |
| 20260506131006 | 60 | 138 | 1.7 | 5.2 | 0.00 | 0.00 | 0.00 | 85 | 1013.4 |
| 20260506130906 | 60 | 70 | 1.7 | 5.2 | 0.00 | 0.00 | 0.00 | 86 | 1013.4 |
| 20260506130807 | 60 | 272 | 1.7 | 5.2 | 0.00 | 0.00 | 0.00 | 86 | 1013.3 |
| 20260506130705 | 60 | 271 | 1.7 | 5.2 | 0.00 | 0.00 | 0.00 | 86 | 1013.3 |
| 20260506130603 | 59 | 142 | 1.7 | 5.2 | 0.00 | 0.00 | 0.00 | 86 | 1013.3 |
| 20260506130459 | 59 | 142 | 1.7 | 5.2 | 0.00 | 0.00 | 0.00 | 86 | 1013.4 |
| 20260506130400 | 59 | 140 | 1.7 | 5.2 | 0.00 | 0.00 | 0.00 | 86 | 1013.3 |
| 20260506130259 | 59 | 136 | 2.6 | 6.1 | 0.00 | 0.00 | 0.00 | 86 | 1013.4 |
| 20260506130200 | 59 | 165 | 2.6 | 6.1 | 0.00 | 0.00 | 0.00 | 86 | 1013.4 |
| 20260506130053 | 59 | 165 | 2.6 | 6.1 | 0.00 | 0.00 | 0.00 | 86 | 1013.4 |
| 20260506125949 | 59 | 127 | 2.6 | 6.1 | 0.00 | 0.00 | 0.00 | 86 | 1013.7 |
| 20260506125850 | 59 | 298 | 2.6 | 7.8 | 0.00 | 0.00 | 0.00 | 86 | 1013.7 |
| 20260506125749 | 59 | 294 | 2.6 | 7.8 | 0.00 | 0.00 | 0.00 | 86 | 1013.7 |
| 20260506125649 | 59 | 170 | 3.5 | 7.8 | 0.00 | 0.00 | 0.00 | 86 | 1013.4 |
| 20260506125543 | 59 | 171 | 3.5 | 7.8 | 0.00 | 0.00 | 0.00 | 87 | 1013.4 |
| 20260506125442 | 59 | 138 | 3.5 | 7.8 | 0.00 | 0.00 | 0.00 | 87 | 1013.4 |
| 20260506125343 | 59 | 175 | 2.6 | 7.8 | 0.00 | 0.00 | 0.00 | 87 | 1013.4 |
| 20260506125244 | 59 | 123 | 2.6 | 7.8 | 0.00 | 0.00 | 0.00 | 87 | 1013.4 |
| 20260506125143 | 59 | 161 | 2.6 | 7.8 | 0.00 | 0.00 | 0.00 | 87 | 1013.4 |
| 20260506125040 | 59 | 166 | 2.6 | 7.8 | 0.00 | 0.00 | 0.00 | 87 | 1013.4 |
| 20260506124937 | 59 | 158 | 2.6 | 7.8 | 0.00 | 0.00 | 0.00 | 87 | 1013.3 |
| 20260506124839 | 59 | 120 | 1.7 | 7.0 | 0.00 | 0.00 | 0.00 | 87 | 1013.4 |
| 20260506124736 | 58 | 157 | 1.7 | 6.1 | 0.00 | 0.00 | 0.00 | 88 | 1013.4 |
| 20260506124637 | 58 | 159 | 1.7 | 6.1 | 0.00 | 0.00 | 0.00 | 88 | 1013.4 |
| 20260506124530 | 58 | 146 | 1.7 | 6.1 | 0.00 | 0.00 | 0.00 | 88 | 1013.4 |
| 20260506124427 | 58 | 179 | 1.7 | 6.1 | 0.00 | 0.00 | 0.00 | 88 | 1013.5 |
| 20260506124329 | 58 | 148 | 1.7 | 5.2 | 0.00 | 0.00 | 0.00 | 88 | 1013.4 |
| 20260506124228 | 58 | 126 | 1.7 | 5.2 | 0.00 | 0.00 | 0.00 | 88 | 1013.3 |
| 20260506124128 | 58 | 144 | 1.7 | 5.2 | 0.00 | 0.00 | 0.00 | 88 | 1013.5 |
| 20260506124022 | 58 | 145 | 1.7 | 7.0 | 0.00 | 0.00 | 0.00 | 88 | 1013.5 |
| 20260506123922 | 58 | 128 | 1.7 | 7.0 | 0.00 | 0.00 | 0.00 | 88 | 1013.3 |
| 20260506123822 | 58 | 96 | 2.6 | 7.0 | 0.00 | 0.00 | 0.00 | 88 | 1013.2 |
| 20260506123722 | 58 | 121 | 2.6 | 7.0 | 0.00 | 0.00 | 0.00 | 88 | 1013.3 |
| 20260506123622 | 58 | 87 | 1.7 | 7.0 | 0.00 | 0.00 | 0.00 | 88 | 1013.2 |
| 20260506123521 | 58 | 157 | 2.6 | 7.0 | 0.00 | 0.00 | 0.00 | 88 | 1013.2 |
| 20260506123420 | 58 | 122 | 2.6 | 7.0 | 0.00 | 0.00 | 0.00 | 88 | 1013.2 |
| 20260506123319 | 58 | 122 | 2.6 | 7.0 | 0.00 | 0.00 | 0.00 | 88 | 1013.2 |
| 20260506123219 | 58 | 122 | 2.6 | 7.0 | 0.00 | 0.00 | 0.00 | 88 | 1013.1 |
| 20260506123116 | 58 | 121 | 2.6 | 7.0 | 0.00 | 0.00 | 0.00 | 88 | 1013.0 |
| 20260506123006 | 58 | 155 | 2.6 | 7.0 | 0.00 | 0.00 | 0.00 | 89 | 1013.0 |
| 20260506122906 | 58 | 147 | 2.6 | 7.0 | 0.00 | 0.00 | 0.00 | 89 | 1012.9 |
| 20260506122807 | 57 | 180 | 2.6 | 7.0 | 0.00 | 0.00 | 0.00 | 89 | 1012.9 |
| 20260506122705 | 57 | 144 | 2.6 | 7.0 | 0.00 | 0.00 | 0.00 | 89 | 1013.0 |
| 20260506122605 | 57 | 141 | 2.6 | 8.7 | 0.00 | 0.00 | 0.00 | 89 | 1013.1 |
| 20260506122500 | 57 | 140 | 2.6 | 8.7 | 0.00 | 0.00 | 0.00 | 89 | 1013.1 |
| 20260506122359 | 57 | 177 | 2.6 | 8.7 | 0.00 | 0.00 | 0.00 | 89 | 1013.1 |
| 20260506122301 | 57 | 148 | 2.6 | 8.7 | 0.00 | 0.00 | 0.00 | 89 | 1013.2 |
| 20260506122159 | 57 | 178 | 2.6 | 8.7 | 0.00 | 0.00 | 0.00 | 89 | 1013.1 |
| 20260506122059 | 57 | 154 | 3.5 | 8.7 | 0.00 | 0.00 | 0.00 | 89 | 1013.1 |
| 20260506121959 | 57 | 159 | 3.5 | 8.7 | 0.00 | 0.00 | 0.00 | 89 | 1013.1 |
| 20260506121859 | 57 | 150 | 3.5 | 8.7 | 0.00 | 0.00 | 0.00 | 89 | 1013.1 |
| 20260506121758 | 57 | 153 | 3.5 | 8.7 | 0.00 | 0.00 | 0.00 | 89 | 1013.0 |
| 20260506121654 | 57 | 163 | 3.5 | 8.7 | 0.00 | 0.00 | 0.00 | 89 | 1013.0 |
| 20260506121553 | 57 | 182 | 3.5 | 7.8 | 0.00 | 0.00 | 0.00 | 89 | 1012.9 |
| 20260506121449 | 57 | 157 | 3.5 | 7.8 | 0.00 | 0.00 | 0.00 | 89 | 1012.8 |
| 20260506121348 | 57 | 119 | 3.5 | 7.8 | 0.00 | 0.00 | 0.00 | 89 | 1012.8 |
| 20260506121248 | 57 | 161 | 3.5 | 7.8 | 0.00 | 0.00 | 0.00 | 89 | 1012.9 |
| 20260506121147 | 57 | 150 | 3.5 | 7.0 | 0.00 | 0.00 | 0.00 | 89 | 1012.9 |
| 20260506121046 | 57 | 150 | 3.5 | 7.0 | 0.00 | 0.00 | 0.00 | 89 | 1013.0 |
| 20260506120948 | 57 | 158 | 3.5 | 7.0 | 0.00 | 0.00 | 0.00 | 89 | 1013.0 |
| 20260506120846 | 57 | 121 | 3.5 | 7.0 | 0.00 | 0.00 | 0.00 | 89 | 1012.9 |
| 20260506120745 | 57 | 132 | 3.5 | 7.0 | 0.00 | 0.00 | 0.00 | 89 | 1013.1 |
| 20260506120645 | 57 | 167 | 3.5 | 7.0 | 0.00 | 0.00 | 0.00 | 89 | 1013.0 |
| 20260506120546 | 57 | 142 | 3.5 | 7.0 | 0.00 | 0.00 | 0.00 | 89 | 1013.1 |
| 20260506120445 | 57 | 170 | 3.5 | 7.0 | 0.00 | 0.00 | 0.00 | 89 | 1013.3 |
| 20260506120344 | 57 | 137 | 3.5 | 7.0 | 0.00 | 0.00 | 0.00 | 89 | 1013.2 |
| 20260506120246 | 57 | 144 | 3.5 | 7.0 | 0.00 | 0.00 | 0.00 | 89 | 1013.3 |
| 20260506120145 | 57 | 139 | 4.3 | 7.0 | 0.00 | 0.00 | 0.00 | 89 | 1013.2 |
| 20260506120045 | 56 | 94 | 4.3 | 7.0 | 0.00 | 0.00 | 0.00 | 89 | 1013.2 |
| 20260506115946 | 56 | 142 | 4.3 | 7.8 | 0.00 | 0.00 | 0.00 | 89 | 1013.2 |
| 20260506115845 | 57 | 144 | 4.3 | 7.8 | 0.00 | 0.00 | 0.00 | 89 | 1013.2 |
| 20260506115747 | 56 | 138 | 4.3 | 7.8 | 0.00 | 0.00 | 0.00 | 89 | 1013.2 |
| 20260506115645 | 56 | 126 | 4.3 | 7.8 | 0.00 | 0.00 | 0.00 | 89 | 1013.2 |
| 20260506115546 | 56 | 145 | 3.5 | 7.8 | 0.00 | 0.00 | 0.00 | 89 | 1013.1 |
| 20260506115446 | 56 | 134 | 3.5 | 7.8 | 0.00 | 0.00 | 0.00 | 89 | 1013.1 |
| 20260506115343 | 56 | 174 | 3.5 | 7.8 | 0.00 | 0.00 | 0.00 | 89 | 1013.1 |
| 20260506115243 | 56 | 141 | 3.5 | 8.7 | 0.00 | 0.00 | 0.00 | 89 | 1013.1 |
| 20260506115144 | 56 | 175 | 3.5 | 8.7 | 0.00 | 0.00 | 0.00 | 89 | 1013.2 |
| 20260506115043 | 56 | 128 | 3.5 | 8.7 | 0.00 | 0.00 | 0.00 | 89 | 1013.2 |
| 20260506114943 | 56 | 139 | 2.6 | 8.7 | 0.00 | 0.00 | 0.00 | 89 | 1013.4 |
| 20260506114843 | 56 | 147 | 3.5 | 8.7 | 0.00 | 0.00 | 0.00 | 89 | 1013.4 |
| 20260506114744 | 56 | 145 | 3.5 | 8.7 | 0.00 | 0.00 | 0.00 | 89 | 1013.4 |
| 20260506114644 | 56 | 141 | 3.5 | 8.7 | 0.00 | 0.00 | 0.00 | 89 | 1013.5 |
| 20260506114543 | 56 | 157 | 3.5 | 8.7 | 0.00 | 0.00 | 0.00 | 89 | 1013.4 |
| 20260506114443 | 56 | 183 | 3.5 | 8.7 | 0.00 | 0.00 | 0.00 | 89 | 1013.4 |
| 20260506114342 | 56 | 144 | 3.5 | 8.7 | 0.00 | 0.00 | 0.00 | 89 | 1013.5 |
| 20260506114241 | 56 | 126 | 4.3 | 7.8 | 0.00 | 0.00 | 0.00 | 89 | 1013.7 |
| 20260506114142 | 56 | 175 | 4.3 | 7.8 | 0.00 | 0.00 | 0.00 | 89 | 1013.5 |
| 20260506114036 | 56 | 199 | 4.3 | 7.8 | 0.00 | 0.00 | 0.00 | 89 | 1013.5 |
| 20260506113936 | 56 | 184 | 4.3 | 7.8 | 0.00 | 0.00 | 0.00 | 89 | 1013.5 |
| 20260506113836 | 56 | 181 | 4.3 | 7.8 | 0.00 | 0.00 | 0.00 | 89 | 1013.4 |
| 20260506113735 | 56 | 181 | 4.3 | 7.8 | 0.00 | 0.00 | 0.00 | 89 | 1013.4 |
| 20260506113635 | 56 | 183 | 4.3 | 7.8 | 0.00 | 0.00 | 0.00 | 89 | 1013.3 |